GFSGL_sfc_temp_000.txt.gz
Temp
48 46 45 45 45 44 43 43 43 44 45 46 45 44 44 44 44 43 41 41 40 39 39 39 39 41 41 40 40 41 40 40 37 41 44 45 45 45 47 47 46 46 46
47 45 44 43 43 42 42 42 43 44 46 46 45 44 44 43 43 41 39 40 37 37 38 37 39 43 39 37 37 37 37 38 37 35 39 41 42 43 43 43 46 46 45
46 43 42 42 41 40 41 42 43 45 44 44 44 43 43 42 41 40 38 38 38 38 37 36 36 35 33 33 32 32 33 38 34 33 32 36 37 39 40 41 41 41 45
45 41 40 40 40 39 40 41 43 43 42 42 42 42 41 40 39 39 38 35 33 34 33 33 33 32 31 31 32 31 33 31 33 32 33 34 34 37 36 34 37 38 38
42 41 39 41 41 41 41 41 43 43 42 41 39 39 37 38 40 34 33 31 30 30 31 32 32 34 37 36 35 33 32 31 31 31 31 33 33 33 32 33 31 32 35
43 43 43 43 43 41 41 42 42 41 40 38 37 35 34 38 36 37 35 30 31 30 29 31 32 34 34 36 36 36 35 30 29 28 28 28 29 30 32 33 31 30 32
43 43 42 42 41 41 41 41 39 37 35 34 34 33 32 31 37 37 36 32 30 29 28 28 30 33 33 32 33 34 35 35 33 31 29 30 30 32 32 30 29 30 32
41 42 42 41 39 39 38 37 35 34 33 32 32 31 30 32 35 36 35 30 28 29 29 29 28 29 30 31 30 29 30 31 32 33 32 32 33 34 33 33 32 32 32
39 39 39 39 39 38 36 33 33 31 30 30 30 29 29 29 34 34 33 26 27 27 30 30 30 31 33 35 31 29 30 30 34 36 36 36 36 37 35 32 29 28 26
39 40 41 40 38 36 33 32 31 29 30 29 29 28 30 25 31 32 32 29 25 26 27 29 31 31 32 32 30 29 28 30 32 31 31 34 35 34 36 35 32 28 27
41 40 39 38 36 34 32 31 29 28 26 19 18 21 24 26 26 31 32 28 26 26 27 27 28 31 32 32 32 29 29 32 31 30 31 31 32 31 32 34 34 32 29
38 37 36 35 34 34 30 29 28 25 20 19 14 17 21 20 28 30 32 31 30 27 27 28 29 31 32 32 31 30 32 31 30 29 28 28 30 30 32 34 34 33 34
34 33 32 32 32 31 28 27 25 23 18 17 21 18 21 24 24 29 30 30 31 28 29 30 30 31 30 29 31 31 29 29 28 27 27 28 29 31 32 32 29 32 32
32 31 30 29 29 28 27 27 26 18 17 23 20 21 22 23 24 25 27 28 30 29 27 26 25 26 25 24 25 27 27 28 28 28 27 28 30 29 29 29 26 30 31
31 31 28 27 26 26 27 26 24 23 21 21 18 23 21 20 24 28 28 28 29 28 26 22 22 22 22 23 23 24 25 27 27 28 28 26 27 27 28 28 31 30 29
30 28 23 22 21 25 24 25 30 29 31 30 30 26 24 27 29 29 29 29 29 29 25 20 19 20 20 21 21 22 24 25 27 23 20 23 24 25 26 28 28 28 27
24 26 23 23 22 20 19 19 14 20 28 28 29 28 28 27 27 27 27 27 27 27 23 21 20 19 19 21 21 21 21 23 25 25 28 28 27 26 30 28 28 27 25
19 20 20 21 19 20 12 13 12 10 9 13 22 26 25 26 26 25 25 24 21 22 21 21 20 20 21 21 20 19 20 21 21 23 23 25 25 25 22 24 24 23 22
26 20 15 18 17 13 12 12 10 9 10 10 12 22 22 24 24 23 22 18 18 18 19 19 19 19 19 20 19 18 17 19 19 20 20 21 22 18 20 20 19 19 18
25 23 21 20 18 17 16 12 13 10 10 9 11 18 19 19 17 17 16 16 15 16 16 17 17 18 17 17 18 19 17 17 18 17 18 19 20 19 20 21 18 16 17
20 23 26 23 16 18 12 11 11 8 7 8 14 16 19 17 16 16 15 15 14 14 14 14 14 14 16 16 16 17 19 17 17 16 16 16 18 18 17 16 15 17 19
18 22 23 16 17 12 11 14 8 9 6 10 15 16 18 16 16 15 15 14 15 14 14 13 12 13 14 14 15 14 15 18 18 14 12 13 12 13 14 16 14 12 13
16 16 16 18 14 10 9 9 7 6 8 10 12 14 14 14 14 15 15 14 14 13 13 12 10 11 12 13 14 15 16 16 19 13 11 12 13 12 11 12 11 14 14
20 16 17 14 8 9 9 8 8 12 12 10 9 11 12 12 13 14 15 15 14 12 11 10 10 9 10 11 13 14 15 15 15 14 12 11 12 12 12 12 12 14 14
24 24 18 12 8 10 8 6 5 10 12 10 9 11 13 12 13 14 14 14 13 10 9 9 9 9 8 9 10 11 12 12 11 12 13 10 8 9 8 10 9 14 16
25 25 20 9 11 12 10 7 5 10 11 9 9 9 13 13 13 12 13 13 12 11 9 9 9 8 8 10 11 11 10 9 10 10 9 10 7 5 5 5 5 5 4

GFSGL_sfc_temp_003.txt.gz
Temp
45 45 44 45 42 41 40 40 41 43 44 44 44 45 43 41 42 41 41 40 39 39 39 39 38 38 37 36 37 38 38 39 34 38 39 41 41 43 44 44 45 44 45
45 44 45 42 41 40 40 41 42 44 45 45 44 44 43 42 41 40 38 39 37 36 37 36 36 41 36 36 35 35 36 36 34 32 34 36 38 41 41 40 43 45 43
44 44 43 39 38 38 41 43 44 45 45 44 44 42 41 40 39 38 37 37 36 36 35 34 34 34 32 32 32 31 32 36 32 30 30 33 34 35 36 38 39 39 43
42 41 38 38 38 38 39 41 40 43 42 42 42 41 40 39 38 38 36 33 31 32 32 32 31 30 30 30 31 31 32 30 30 29 30 31 32 34 33 33 34 35 37
40 39 38 41 41 39 39 40 41 42 43 41 39 38 37 37 38 32 32 32 31 31 31 31 31 33 36 35 34 32 30 30 30 30 30 30 31 31 30 33 32 33 34
40 40 42 42 41 41 40 41 40 40 40 39 37 35 34 37 36 37 35 30 30 30 29 30 30 33 32 34 35 35 34 30 29 28 28 26 27 27 28 29 29 29 28
39 41 42 41 41 40 40 40 39 37 36 35 34 33 32 32 37 37 36 30 29 29 28 28 30 32 32 31 32 33 33 34 32 30 28 29 28 30 32 30 29 29 30
39 38 39 40 39 37 37 36 34 33 33 32 31 31 30 32 35 35 34 29 27 27 28 29 28 28 30 30 30 29 30 31 31 31 30 30 31 32 32 32 30 31 31
38 38 39 38 36 35 34 32 32 31 30 30 30 29 29 28 33 33 31 23 24 25 28 29 29 28 31 33 30 27 28 30 34 35 35 34 35 36 34 31 29 27 25
39 38 37 37 35 33 31 31 31 29 29 29 28 28 28 24 29 32 30 26 25 26 27 29 30 30 31 32 29 27 26 29 30 31 31 33 35 34 35 33 31 28 27
38 37 36 36 34 32 31 30 28 27 26 20 18 20 23 25 24 30 31 28 25 25 26 27 28 31 31 32 31 29 29 31 29 29 30 30 30 30 31 33 33 31 29
35 34 33 32 32 32 29 27 27 25 21 19 14 17 20 19 27 28 30 31 30 26 26 28 28 30 31 31 30 30 31 30 28 27 28 28 28 29 31 32 33 33 34
32 31 30 31 30 29 27 26 25 23 19 17 21 19 21 23 22 27 29 29 30 27 29 29 29 29 28 26 28 29 26 27 28 26 27 28 30 31 32 31 32 32 33
31 31 30 28 27 26 27 27 25 19 17 22 20 20 22 20 21 23 26 27 29 29 27 25 24 25 23 23 24 25 25 25 25 26 26 27 29 28 29 30 29 29 29
32 31 28 27 25 26 26 25 25 23 20 21 18 21 20 19 22 28 27 26 27 27 25 22 22 20 20 21 21 22 23 24 24 26 25 26 26 27 27 27 28 27 27
30 29 23 21 21 25 24 24 29 28 30 29 29 25 24 26 28 28 27 28 28 27 24 21 18 18 16 19 18 18 20 21 22 24 22 23 23 24 23 25 28 28 27
22 25 22 22 22 22 19 18 12 19 26 27 27 27 27 27 26 26 26 26 25 24 20 19 18 16 17 19 19 18 18 20 21 22 23 26 27 24 25 26 27 28 25
18 18 16 16 16 18 12 13 7 8 7 13 20 24 25 25 25 24 23 22 19 20 19 18 16 17 16 17 18 17 16 16 18 19 20 21 21 22 23 25 25 23 21
27 21 13 13 13 12 13 9 8 8 9 10 11 16 20 23 22 22 21 15 14 15 16 16 16 16 16 15 15 16 13 14 13 14 15 17 17 20 20 19 20 19 21
26 21 17 20 14 14 12 9 11 8 8 9 7 12 17 18 15 15 15 14 13 14 14 14 15 15 14 14 14 14 16 16 15 15 14 14 14 13 13 20 16 14 17
20 20 24 20 16 13 9 9 8 5 5 8 7 12 17 15 14 14 14 13 13 12 12 12 12 12 13 14 14 13 14 15 15 12 12 12 10 9 14 12 10 12 13
16 19 20 14 13 9 9 9 6 6 9 8 8 12 16 13 13 14 14 12 13 13 12 11 10 11 12 12 12 12 13 14 16 12 9 9 9 9 10 9 11 9 12
15 14 13 15 11 7 6 7 5 5 9 6 8 10 12 11 11 13 13 13 13 12 11 10 9 9 11 11 12 13 12 12 13 13 6 7 9 9 5 8 8 11 10
17 17 19 13 5 5 3 2 2 6 11 6 5 6 10 9 10 12 13 12 12 11 11 9 9 9 9 9 10 11 11 12 11 11 7 6 8 8 7 9 9 10 11
23 23 21 8 6 5 1 2 1 1 6 5 5 7 11 10 11 11 11 11 11 10 10 9 9 8 8 7 8 8 7 8 8 7 9 7 5 5 3 3 -0 5 7
25 24 21 10 9 6 1 0 1 -0 5 5 5 6 7 10 10 10 11 11 9 9 9 9 8 7 7 9 9 9 6 6 7 6 6 8 5 3 2 2 0 -0 -1

GFSGL_sfc_temp_006.txt.gz
Temp
43 43 43 45 45 43 38 38 39 40 41 42 43 43 42 43 42 40 40 40 39 39 39 38 37 38 36 36 36 36 36 36 33 37 38 40 41 42 44 44 44 44 45
43 43 43 41 40 37 38 39 40 42 43 42 44 43 43 41 40 39 38 38 37 36 36 35 35 39 36 36 35 33 34 35 34 32 34 36 37 40 41 40 43 45 43
43 41 39 38 36 36 37 38 40 41 42 43 43 44 43 41 40 38 36 36 35 34 33 32 33 33 31 32 32 32 32 35 32 31 32 34 35 37 37 38 39 40 42
41 38 36 35 35 35 36 37 39 40 42 42 42 41 39 38 38 37 36 33 32 33 32 32 31 31 30 30 31 31 32 31 31 31 31 32 32 34 35 34 34 36 37
39 39 38 40 39 37 38 38 39 39 40 40 40 38 37 37 38 34 33 32 31 30 31 32 32 33 36 35 33 31 30 30 30 30 30 31 30 30 30 33 32 33 35
39 39 40 42 42 40 40 39 39 39 39 39 36 33 32 36 37 37 36 31 31 31 29 30 30 32 32 33 34 34 33 29 28 28 28 28 29 29 30 30 29 28 27
41 41 39 41 41 40 39 38 37 35 34 33 32 32 31 32 36 36 36 31 30 29 28 28 29 32 32 31 31 32 32 33 31 30 28 29 29 31 31 28 29 29 29
36 37 39 38 36 35 35 34 33 33 32 30 30 30 29 31 34 34 33 29 27 27 28 28 28 28 30 30 30 30 30 30 31 32 30 30 32 33 32 32 31 31 32
36 36 36 35 34 33 32 30 31 30 30 29 30 29 27 28 32 32 31 25 24 24 28 28 28 29 30 32 29 27 28 30 34 35 35 34 34 34 34 31 28 27 26
36 35 34 33 31 29 29 29 30 28 29 29 28 27 27 24 28 31 30 25 24 25 26 29 30 30 31 31 29 27 26 29 31 30 31 33 35 34 34 33 30 27 27
35 34 33 31 30 29 28 28 27 26 26 20 18 20 23 25 24 30 31 27 26 25 26 26 28 30 31 32 31 28 27 30 29 30 29 30 30 31 32 33 33 31 28
33 31 30 30 30 30 27 26 27 24 21 18 14 17 20 19 26 28 30 30 30 26 26 28 27 30 30 30 28 28 29 28 27 28 27 27 28 29 32 32 33 33 34
32 30 30 29 29 29 26 25 24 22 18 18 21 20 21 23 21 27 27 28 29 27 28 29 28 28 27 25 27 27 25 25 24 25 27 27 29 31 32 31 31 32 33
31 30 29 28 27 26 27 27 25 19 17 21 19 19 21 20 21 23 26 26 28 28 27 26 25 25 22 22 23 24 23 24 24 24 26 28 29 29 29 30 29 29 29
31 31 29 27 25 26 26 25 24 22 19 21 18 18 19 19 22 27 26 25 26 26 25 23 22 21 19 21 21 21 21 22 22 23 24 25 27 27 27 29 30 29 28
30 28 22 21 21 24 24 23 29 27 29 29 28 24 24 26 27 27 27 27 27 25 23 19 18 17 16 18 18 18 19 19 20 22 23 25 25 25 26 26 28 28 27
21 23 20 21 19 18 17 17 13 19 25 26 26 26 26 26 26 25 25 24 24 22 19 18 16 16 16 17 18 18 16 18 19 20 21 21 23 25 25 25 26 28 27
17 17 18 17 14 14 8 11 8 7 7 11 19 23 24 25 24 24 22 20 17 18 17 16 15 15 16 16 16 15 17 17 17 16 18 19 19 22 21 23 24 23 24
25 20 12 10 10 10 8 8 6 6 6 10 14 16 16 22 22 21 20 15 14 14 15 15 15 15 15 16 14 14 14 15 15 13 15 15 15 19 23 19 19 17 19
25 20 16 15 12 12 10 8 10 8 9 13 10 10 16 16 14 13 14 13 13 13 13 13 14 14 14 14 14 14 14 15 15 14 12 12 12 14 15 17 15 15 16
18 18 18 17 14 12 8 7 7 8 11 12 7 8 15 14 12 13 12 12 12 12 11 12 12 12 13 13 13 12 13 14 15 14 12 12 8 11 14 14 14 15 16
20 16 15 12 12 8 7 7 4 6 9 8 8 10 14 11 11 13 13 11 11 12 12 11 9 10 11 11 11 11 11 11 12 12 11 10 10 10 10 11 12 12 14
22 16 12 14 9 6 3 4 1 -1 5 4 5 9 10 10 10 12 12 10 11 11 11 10 8 9 10 9 9 10 10 9 9 8 9 7 9 9 8 11 11 12 12
16 16 18 11 3 4 -1 -1 -3 0 5 3 2 3 7 9 9 10 10 9 10 10 10 8 9 8 9 9 8 9 9 9 8 8 3 5 7 7 7 9 10 10 10
22 23 15 8 5 5 2 -1 -4 -5 -3 -0 0 3 7 8 11 11 11 10 10 9 10 9 8 8 9 8 7 6 5 5 6 5 7 5 4 4 3 5 3 7 7
25 24 21 12 5 6 6 3 -0 -5 -3 0 -1 2 5 6 9 9 12 12 11 10 10 9 9 8 8 10 9 8 4 3 4 4 4 7 5 3 3 3 3 5 4

GFSGL_sfc_temp_009.txt.gz
Temp
53 51 51 50 49 48 47 47 48 49 50 49 50 49 47 45 46 47 47 47 46 46 46 45 44 45 45 45 46 46 45 45 40 45 49 50 49 49 51 53 53 53 53
51 51 49 48 47 46 46 47 48 48 49 49 49 46 44 45 48 46 45 45 45 44 44 44 44 46 44 44 44 42 43 44 42 39 45 46 46 48 49 49 51 52 52
50 49 47 46 46 45 45 46 47 47 47 47 45 42 42 44 45 45 44 44 43 43 42 41 41 40 40 41 41 41 41 42 42 40 40 44 45 46 46 47 47 48 50
48 47 46 45 45 45 45 45 46 46 46 43 42 43 41 43 44 44 44 42 42 41 40 40 39 39 38 39 39 39 39 39 39 38 39 40 42 44 43 41 41 44 44
47 46 45 46 46 43 45 46 46 47 46 46 44 43 42 42 43 41 41 40 40 39 40 40 39 38 36 37 37 38 38 37 37 35 34 36 36 36 35 40 39 41 42
45 44 45 45 46 46 45 45 45 44 43 42 41 39 39 40 36 37 37 39 38 38 36 37 37 36 36 34 34 34 35 34 33 33 33 33 36 37 38 37 37 36 34
44 44 45 44 44 43 43 43 42 41 41 40 39 39 38 38 35 35 35 37 37 36 35 35 35 37 35 36 34 33 33 33 31 32 30 32 33 35 36 34 34 35 35
43 44 44 43 41 42 41 40 40 40 39 38 37 37 37 37 33 33 33 35 34 34 34 35 34 35 35 33 32 33 34 35 35 35 34 35 37 38 37 36 35 36 37
43 42 42 41 40 39 38 38 38 38 37 37 36 35 35 35 32 32 32 32 31 31 33 35 34 34 33 33 31 30 32 35 37 35 35 35 35 35 35 36 32 31 30
42 41 41 40 39 38 37 37 37 37 36 35 34 35 32 31 31 30 31 31 29 30 32 33 32 32 31 31 30 30 28 32 34 34 35 36 36 36 34 34 34 30 31
42 41 40 39 38 38 37 37 37 36 33 30 29 30 31 31 30 30 30 29 29 29 30 32 33 31 30 30 30 29 29 31 31 31 33 35 36 35 36 38 36 34 32
41 40 39 39 38 37 36 37 36 34 31 29 28 29 31 29 29 29 29 29 30 28 29 31 31 28 29 28 28 28 28 28 29 29 29 30 32 33 36 37 38 38 38
40 39 39 38 37 37 36 35 34 34 31 29 29 28 28 30 30 29 28 29 30 29 30 28 28 27 27 28 27 27 27 28 28 28 29 31 33 35 35 34 35 37 35
38 38 38 37 36 37 36 35 33 31 29 29 28 26 26 27 28 29 29 30 29 29 29 29 26 25 26 27 28 28 28 27 26 27 28 31 33 33 33 34 33 33 32
38 38 36 35 34 34 34 33 32 31 29 28 27 27 24 24 26 27 27 26 27 26 26 26 24 23 26 26 26 26 27 27 26 27 28 30 32 33 32 33 33 33 31
35 35 34 33 33 33 33 32 31 29 28 28 28 26 26 26 27 26 26 25 25 24 24 21 20 21 22 23 23 24 25 25 25 26 27 28 29 31 31 32 32 32 31
31 31 33 29 32 31 30 28 27 29 26 26 26 26 26 26 26 25 24 23 23 22 20 20 19 19 20 22 23 22 22 24 25 25 25 26 27 30 30 31 31 31 31
29 24 30 31 30 29 28 27 26 24 22 23 24 24 23 24 24 23 22 21 19 19 19 18 18 19 20 20 22 22 23 24 24 24 24 24 25 28 29 29 30 30 31
31 32 29 29 29 26 27 27 26 25 24 23 23 23 22 22 22 21 20 18 16 16 17 17 17 18 18 20 20 20 21 22 22 22 23 23 23 25 26 28 28 26 28
32 27 24 29 29 28 28 26 25 24 23 22 21 20 21 21 19 18 18 17 16 16 16 16 17 17 18 19 19 19 21 22 22 23 22 23 23 24 24 25 26 27 28
30 30 23 30 28 27 26 25 24 23 22 21 20 19 18 18 17 17 17 16 16 16 15 16 16 17 17 18 19 19 19 20 20 21 22 23 23 23 24 26 26 26 27
28 28 29 28 27 26 25 25 23 22 22 21 20 20 17 18 17 17 17 16 16 16 17 16 16 16 16 16 16 17 18 18 19 19 21 22 24 24 25 25 25 25 26
28 28 28 28 26 22 25 25 23 22 22 22 20 19 19 18 17 17 17 16 16 16 16 16 15 15 16 16 16 16 16 16 17 17 18 21 23 22 23 24 23 23 23
28 28 28 28 25 24 24 24 23 19 20 21 20 20 19 18 18 18 17 17 17 16 16 15 15 14 15 15 16 16 15 15 17 18 17 19 20 21 22 22 22 20 22
28 28 29 28 26 24 23 24 23 22 21 21 21 20 20 19 18 18 18 17 17 16 15 15 14 14 14 13 14 13 10 9 12 13 19 20 17 17 17 19 18 20 18
29 29 29 28 26 25 24 23 23 22 21 21 21 20 20 19 18 18 18 19 17 17 16 15 15 14 14 15 14 12 10 9 11 10 17 19 17 17 18 17 17 19 18

GFSGL_sfc_temp_012.txt.gz
Temp
62 60 59 57 56 56 55 55 55 55 55 55 54 52 48 44 43 44 47 49 49 49 49 50 50 51 50 51 51 49 48 48 45 49 53 55 54 54 55 56 56 56 57
60 59 57 55 56 55 54 53 53 52 54 53 49 46 43 43 47 45 46 48 48 47 47 48 48 50 48 49 49 48 48 49 47 44 49 50 51 53 53 52 55 57 57
59 58 57 55 54 52 52 51 52 50 49 47 46 44 44 46 47 47 47 48 48 48 48 47 46 46 45 46 46 46 46 48 47 45 45 49 50 52 50 52 52 52 55
57 56 55 52 50 51 52 52 52 51 50 49 49 48 48 48 48 48 48 47 46 47 46 45 45 44 43 43 44 43 44 44 45 44 44 45 47 49 49 47 46 50 50
55 54 52 52 52 52 52 52 51 51 51 50 49 48 47 47 46 43 44 44 45 44 44 44 44 43 39 38 39 40 42 42 43 43 42 43 43 44 43 46 43 45 47
54 52 52 52 52 51 50 50 49 49 49 48 47 46 45 46 36 36 37 41 42 43 43 43 44 41 41 38 37 36 36 37 36 36 36 35 39 40 42 40 39 37 35
52 52 51 50 49 49 49 49 48 47 47 45 45 45 43 44 35 34 34 39 40 41 41 41 41 43 40 41 37 36 35 34 32 35 33 35 35 38 39 37 37 36 36
51 51 50 49 48 48 48 47 46 46 45 44 44 43 42 43 35 33 32 37 39 39 40 40 40 40 39 36 36 35 35 37 37 37 36 37 38 39 38 39 39 38 39
49 48 49 48 47 47 46 45 45 45 44 43 42 41 40 40 35 33 32 34 35 36 37 37 35 35 35 34 33 32 34 36 38 37 36 36 36 36 37 37 33 33 32
50 49 50 48 46 46 45 45 45 45 43 42 39 39 36 36 34 32 32 33 29 31 33 35 34 35 33 32 31 31 30 34 36 36 37 37 35 37 35 36 36 32 33
51 50 49 48 46 46 45 45 44 43 40 34 32 34 35 34 34 32 31 29 29 29 31 32 36 31 29 30 30 30 30 32 31 33 34 34 36 38 38 38 38 35 33
50 49 47 47 46 45 45 45 43 41 37 32 32 32 35 34 34 33 31 31 30 29 30 33 32 30 29 29 29 29 28 29 30 31 32 32 33 35 37 39 39 39 40
45 46 46 46 45 45 44 42 40 39 33 31 32 31 33 34 35 31 30 30 30 30 31 30 28 28 28 29 28 28 28 30 30 29 30 32 35 37 38 36 37 39 40
45 45 46 45 43 44 43 41 39 34 31 31 30 31 31 32 30 30 30 30 30 30 29 30 28 27 27 28 30 30 30 30 29 29 30 33 35 36 35 36 34 35 34
44 44 43 42 41 41 41 40 37 35 31 30 31 30 27 26 27 28 27 27 27 27 27 28 27 26 27 29 29 29 30 30 29 30 30 31 33 35 35 36 36 35 33
39 41 41 39 39 39 39 38 31 30 28 28 27 27 28 28 27 27 26 25 25 25 26 24 23 23 24 26 27 27 28 28 28 29 30 30 31 33 33 33 34 34 33
36 36 39 36 36 36 35 33 31 34 29 27 26 26 26 26 26 25 25 24 23 24 23 23 22 22 23 25 25 26 25 27 28 28 28 29 30 32 32 32 32 33 33
34 30 36 37 35 34 32 31 31 29 28 30 29 26 25 25 25 24 24 24 23 23 22 21 21 21 22 24 25 24 25 26 26 27 27 28 28 29 30 31 32 31 32
35 35 34 34 33 31 31 31 30 30 30 29 29 29 27 25 24 24 23 23 21 20 20 21 21 22 23 24 24 24 24 25 25 25 26 27 27 28 29 30 31 29 30
35 31 31 33 32 32 31 30 30 30 30 28 28 25 25 26 23 22 22 21 21 21 21 21 22 22 22 23 23 24 25 25 25 25 25 26 27 28 28 28 29 28 29
35 35 29 33 32 31 30 30 30 29 28 28 27 25 21 23 22 21 22 21 20 20 20 21 21 22 22 22 23 23 24 24 24 24 25 26 27 26 28 28 29 29 29
34 33 33 32 32 30 30 30 29 28 28 27 27 27 21 23 22 22 22 21 21 21 21 21 21 21 21 21 21 21 22 22 23 23 24 25 26 27 27 27 27 27 28
33 32 32 32 31 29 29 29 29 28 28 27 27 27 25 23 23 22 21 21 21 21 20 20 20 20 21 21 21 21 20 20 21 23 23 25 26 25 26 26 26 26 26
32 31 31 31 30 30 29 28 28 27 27 27 27 27 26 25 23 22 22 22 22 21 21 19 19 19 19 19 20 21 19 18 21 22 23 24 25 25 26 26 26 25 25
32 31 31 31 30 30 29 29 28 28 27 27 27 27 26 25 25 24 23 23 22 21 20 20 19 19 18 18 17 17 15 14 17 16 23 24 23 23 23 24 24 25 24
32 32 31 31 30 30 29 28 28 28 27 27 27 27 26 25 24 24 24 23 23 22 20 20 19 18 18 19 17 15 14 14 15 16 21 23 22 21 22 22 21 23 23

GFSGL_sfc_temp_015.txt.gz
Temp
65 64 62 61 59 59 58 57 54 54 54 53 53 51 48 47 47 46 44 45 44 46 48 47 48 49 49 50 51 50 49 47 42 47 51 53 53 54 55 56 56 56 56
63 62 61 60 60 58 56 52 53 51 53 53 50 46 48 48 47 44 45 46 46 45 46 46 47 50 48 49 49 48 48 50 48 44 49 50 51 53 53 53 55 57 56
62 61 60 59 57 53 51 52 53 53 52 53 52 49 48 48 50 50 50 48 48 47 47 46 47 47 45 46 47 46 47 48 47 46 45 49 50 51 51 52 52 53 56
61 59 58 57 55 53 54 53 53 54 53 52 52 51 50 50 50 50 48 46 46 47 47 47 46 45 45 44 45 44 44 43 44 44 44 46 48 50 50 48 47 51 51
59 58 57 56 55 53 53 52 52 52 52 52 51 50 50 50 49 44 44 42 42 43 44 46 46 45 41 41 41 40 40 40 41 41 42 43 45 46 45 47 45 47 48
57 56 57 54 51 51 51 51 51 51 50 50 49 48 47 49 36 36 36 39 40 41 41 43 45 43 43 40 38 37 38 37 36 37 38 38 39 41 43 41 41 39 37
57 57 55 52 50 50 50 51 50 49 49 48 47 47 46 45 36 35 34 38 37 39 41 41 42 45 42 43 41 37 36 35 33 35 32 34 35 38 39 37 38 38 37
57 55 53 52 50 50 50 50 49 48 47 46 46 45 43 43 36 34 33 36 37 38 39 40 40 40 41 38 37 36 37 38 38 37 36 37 39 41 40 39 38 37 39
56 55 53 51 49 49 49 48 48 47 46 45 45 42 39 39 37 34 34 34 34 34 36 37 37 36 36 36 34 32 34 36 39 38 37 37 37 36 37 37 33 31 31
55 55 54 51 49 48 48 47 48 47 46 44 41 40 37 36 36 35 34 33 30 32 33 35 35 35 34 33 32 31 30 33 35 35 36 37 37 37 35 36 35 31 32
55 55 52 48 48 49 48 48 47 46 44 38 35 37 37 37 36 35 33 31 31 30 31 32 35 30 30 30 30 30 30 31 31 32 33 34 36 37 39 39 38 36 33
52 48 44 45 47 48 47 47 46 44 40 36 33 33 37 36 36 34 32 32 31 29 29 32 32 31 30 30 29 30 29 29 30 30 31 32 33 35 37 40 40 38 39
46 43 44 47 46 48 46 45 43 42 37 33 33 33 34 35 35 34 31 30 30 29 31 30 30 29 29 29 29 29 29 30 30 30 30 32 34 36 39 39 39 38 37
43 44 45 45 45 46 46 45 42 39 33 33 32 32 32 31 32 32 30 30 29 29 28 28 29 28 28 29 30 31 31 31 30 30 30 33 35 35 35 37 36 36 34
43 44 43 44 44 43 44 42 40 38 33 32 31 30 27 26 28 28 27 26 26 26 25 28 27 26 26 28 29 30 30 31 30 30 30 31 32 34 34 37 37 36 33
38 41 41 41 40 38 41 40 33 31 30 29 28 27 28 28 27 27 27 26 26 25 26 24 23 23 23 25 26 27 28 28 29 30 30 30 30 31 32 35 36 35 34
35 36 37 36 36 36 36 33 32 34 30 30 27 27 27 27 27 26 26 27 25 26 23 23 22 22 23 24 25 25 25 28 29 28 29 29 29 30 31 32 33 34 34
36 34 35 35 35 34 32 32 32 30 30 32 29 28 28 27 27 26 26 27 25 25 23 22 22 22 24 25 25 25 26 27 27 28 27 28 28 29 30 30 31 31 32
35 35 34 33 33 32 32 32 32 31 31 32 32 32 30 28 26 25 26 23 22 22 22 22 23 24 24 24 24 25 26 26 26 26 27 27 28 28 29 30 29 30 31
39 33 33 33 33 33 32 31 31 31 31 31 30 29 28 27 25 24 25 23 22 23 23 23 23 24 23 23 24 24 25 26 25 25 25 27 28 29 27 28 29 28 29
37 35 33 33 33 32 32 31 31 30 30 30 30 27 24 24 25 24 23 23 23 22 22 22 23 23 23 23 23 23 23 24 25 24 24 26 27 27 28 29 29 29 29
34 33 33 32 32 32 31 31 30 30 30 30 30 29 25 26 26 25 24 23 23 23 23 22 23 22 22 22 22 21 22 21 22 23 24 26 27 27 28 27 28 28 28
33 32 32 32 33 31 31 31 30 30 30 29 30 29 28 27 26 25 24 24 24 23 23 22 21 20 21 21 22 21 19 18 19 21 21 24 25 26 27 27 27 26 25
33 32 31 32 32 32 31 30 30 30 30 29 29 28 28 28 27 26 24 25 24 24 23 22 21 20 20 20 21 21 20 17 18 19 19 24 24 24 25 25 26 26 25
33 32 32 32 32 31 31 30 30 30 30 29 29 28 29 28 28 27 27 26 25 24 23 22 21 21 20 19 18 17 15 15 16 16 21 24 23 22 23 24 22 26 24
33 33 32 32 32 32 31 30 29 29 29 30 29 29 28 28 28 27 26 25 24 24 23 23 22 20 20 22 19 16 14 14 14 15 20 22 20 21 19 22 21 23 23

GFSGL_sfc_temp_018.txt.gz
Temp
60 58 56 55 55 54 52 50 49 49 49 49 50 47 46 44 45 44 43 42 43 42 43 43 42 44 44 44 44 42 40 41 36 40 46 47 46 46 49 50 51 50 47
59 57 56 56 55 53 50 49 49 48 49 49 49 49 47 45 44 43 42 42 41 41 42 42 42 46 43 42 42 41 40 40 38 36 40 41 43 44 45 45 50 54 47
59 58 56 54 53 50 49 49 49 49 49 48 48 46 45 45 44 43 43 41 40 40 40 41 41 41 39 39 40 39 39 42 38 37 36 38 40 41 41 42 43 43 50
58 56 54 52 51 49 49 49 49 49 47 46 46 46 45 46 46 44 43 39 38 39 39 39 39 39 38 37 38 36 38 35 35 34 35 36 38 40 39 38 37 40 40
56 55 53 53 52 49 48 48 47 47 47 46 46 45 44 45 42 37 38 36 35 35 36 38 39 40 42 39 39 34 33 31 32 32 32 33 34 33 33 37 35 36 38
56 54 55 53 52 49 47 47 47 45 45 44 43 43 42 46 36 36 34 32 34 34 32 35 37 40 40 40 40 39 36 32 30 30 30 29 30 33 34 32 30 29 27
55 56 54 52 50 48 48 47 46 43 43 41 41 41 40 39 36 36 34 32 32 32 32 33 35 40 37 38 35 37 34 35 32 31 28 29 29 31 32 31 29 28 28
56 55 53 50 49 49 47 46 45 43 41 40 39 39 37 39 38 36 34 30 30 31 32 31 31 32 34 34 32 31 32 33 33 36 32 31 33 35 35 34 32 31 31
54 50 49 49 49 47 46 44 42 41 40 40 40 37 34 34 37 36 32 29 29 29 31 31 31 31 34 35 32 29 29 31 37 38 36 36 36 36 36 32 29 28 26
51 49 49 48 45 41 39 41 42 42 41 37 35 35 36 32 36 36 32 28 25 27 29 31 33 33 30 30 28 28 26 29 31 30 30 32 35 35 35 33 30 27 27
50 48 47 46 42 41 41 43 41 39 36 32 31 31 32 33 32 34 32 27 26 26 27 27 29 31 31 31 31 27 27 29 28 28 28 29 31 32 34 35 34 32 28
48 46 44 42 42 45 42 41 40 37 33 30 27 29 31 30 34 34 30 31 30 25 25 27 28 31 30 30 29 29 30 28 26 25 26 27 29 30 33 35 36 35 35
44 43 43 43 45 44 41 38 36 35 30 29 30 28 28 29 29 31 30 30 29 25 26 27 28 29 29 28 29 30 28 27 27 27 27 28 29 31 34 32 33 33 33
41 41 42 41 41 41 41 39 35 30 28 29 27 26 25 26 25 25 25 25 27 26 25 25 26 27 26 27 28 29 28 28 27 27 27 29 30 30 29 31 32 31 29
40 39 37 37 37 37 39 34 32 30 29 26 25 24 20 19 23 27 26 24 24 25 23 25 24 23 23 24 25 26 27 27 26 26 27 28 28 29 28 32 29 27 28
34 34 34 34 34 34 35 34 34 31 32 31 29 23 22 27 29 29 28 28 28 27 24 22 21 20 21 22 22 23 24 25 25 26 26 26 27 27 27 31 30 26 25
34 33 33 33 34 33 32 31 29 31 33 31 30 29 29 28 29 29 28 28 27 26 21 20 20 20 21 22 23 22 22 24 26 25 25 25 25 26 27 28 28 28 29
33 33 33 33 32 31 30 30 30 29 26 28 29 29 29 30 29 28 27 27 22 23 21 20 19 20 21 21 21 22 22 23 23 23 24 24 23 25 26 25 26 26 27
34 32 32 31 31 31 30 30 29 29 28 28 27 27 25 29 29 28 28 20 19 19 20 20 20 20 20 21 20 21 21 22 22 21 22 23 24 25 24 26 26 24 24
35 31 31 31 31 31 30 29 29 28 28 28 26 23 21 19 18 18 20 18 14 16 18 19 20 20 20 20 19 19 20 20 20 20 20 22 23 25 24 25 25 25 25
34 33 31 31 31 30 29 29 29 28 27 27 26 21 17 17 18 16 17 19 15 14 14 18 18 18 18 18 19 18 18 17 17 18 18 20 22 22 24 25 23 25 23
31 31 31 31 31 30 30 29 29 28 28 27 26 23 19 18 18 17 21 17 18 14 14 14 17 17 17 17 17 16 16 14 14 14 15 17 20 20 22 22 21 17 23
31 31 31 30 31 31 29 29 29 29 29 27 26 25 25 24 18 18 16 20 20 18 14 14 14 14 16 15 16 16 14 12 13 14 13 13 18 18 19 17 20 15 13
31 31 30 30 31 30 30 30 30 29 28 28 28 27 25 24 19 17 16 19 15 17 15 12 13 15 16 14 14 14 14 12 13 13 12 14 17 17 18 16 14 17 11
31 31 31 30 30 30 30 30 30 29 29 29 28 27 26 25 22 20 17 16 15 14 14 11 12 14 15 15 14 13 11 12 11 11 13 15 14 13 13 14 11 15 10
30 32 31 31 30 31 30 30 29 28 28 28 29 28 27 23 21 21 17 16 14 13 13 12 12 12 13 15 14 14 12 12 11 11 12 15 14 12 10 11 11 11 11

GFSGL_sfc_temp_021.txt.gz
Temp
52 51 50 49 49 46 45 45 45 44 44 45 44 43 43 41 41 40 39 40 39 38 38 38 39 40 40 41 41 41 40 39 34 37 40 41 42 44 46 45 46 45 45
52 51 50 49 48 46 45 45 45 43 44 44 44 42 42 41 40 39 38 37 36 35 35 35 36 41 37 37 38 37 37 38 35 32 34 36 39 42 41 41 47 51 48
52 50 48 48 47 45 44 44 45 44 43 43 42 41 41 40 40 39 38 36 35 36 35 34 34 35 34 35 36 34 34 38 33 30 29 33 35 38 40 39 39 40 47
51 49 49 47 48 45 44 44 45 44 43 42 42 41 41 41 39 38 37 34 33 34 34 33 34 34 33 33 35 34 35 31 31 29 30 30 31 34 34 33 32 34 36
50 49 48 49 48 45 45 45 45 44 43 42 41 40 40 40 38 33 32 30 30 30 31 33 34 35 38 38 37 34 31 29 28 27 27 27 27 27 27 30 29 29 31
50 50 50 47 46 45 43 45 42 43 41 40 39 39 37 40 36 36 33 29 30 30 28 30 31 34 35 36 37 36 35 29 27 26 26 25 26 27 28 27 26 25 25
49 47 47 45 45 44 43 43 42 41 39 38 37 36 35 33 36 36 35 30 28 27 27 28 30 34 32 32 34 35 34 35 32 29 27 27 27 27 28 27 26 25 25
46 45 45 44 43 41 41 40 40 39 38 37 36 33 32 36 37 37 35 28 27 27 28 28 28 29 30 31 30 29 29 30 31 32 29 30 29 31 30 32 30 31 29
43 43 42 41 39 38 37 35 36 38 36 35 33 32 30 30 35 35 31 27 27 27 29 30 30 29 31 33 29 26 27 29 34 36 36 36 35 35 35 32 29 28 26
43 43 43 42 39 39 36 37 37 36 34 32 32 31 33 29 34 35 31 24 21 25 26 28 30 30 30 30 28 24 23 26 28 28 27 30 32 32 34 32 30 26 27
43 42 41 39 38 39 36 35 36 33 30 27 27 28 30 30 29 33 31 26 25 25 24 25 27 30 30 31 31 27 26 28 28 27 27 27 29 30 31 33 32 30 27
41 39 39 38 39 41 38 37 34 29 28 25 17 20 24 25 31 30 30 29 29 23 23 25 26 29 30 30 29 29 30 29 26 25 25 25 26 28 31 33 33 32 33
37 36 36 37 38 38 33 30 29 28 23 23 24 18 21 24 22 28 27 28 28 24 25 26 27 28 28 27 28 29 28 28 26 25 26 27 28 29 31 31 31 32 32
34 34 34 33 33 33 33 31 27 22 20 25 21 19 18 20 19 22 23 19 26 25 25 24 26 26 25 25 26 26 26 26 25 24 25 27 29 27 26 28 30 29 24
33 33 30 29 30 30 30 28 27 25 24 21 19 19 9 8 18 28 27 25 24 25 23 23 22 22 22 23 23 24 24 25 24 24 24 25 26 27 27 29 30 26 24
30 29 27 26 26 28 28 27 32 31 33 32 30 18 14 25 29 30 29 29 28 27 22 19 18 19 19 21 20 21 22 23 23 24 24 25 24 24 26 27 28 25 25
30 30 26 27 26 28 28 28 27 27 32 33 32 30 29 29 30 30 29 28 27 25 19 18 17 18 18 20 20 20 20 23 24 22 22 23 23 24 25 23 24 24 26
28 27 24 23 27 28 27 28 27 21 21 20 29 30 29 30 30 29 28 25 14 17 15 18 17 18 18 18 19 19 19 20 20 20 21 21 22 23 21 22 23 21 25
30 26 24 28 28 28 27 27 26 26 25 20 22 23 22 28 28 28 27 11 8 10 12 16 17 18 17 18 16 16 17 17 16 17 17 19 20 22 22 20 20 20 21
28 27 25 28 27 27 27 25 26 25 25 24 17 16 15 13 6 4 4 4 3 7 6 11 16 17 16 16 16 15 15 14 14 14 14 15 18 20 20 21 21 21 17
24 24 25 28 27 27 26 26 26 25 25 23 19 16 12 10 7 7 7 5 6 5 3 7 8 11 13 14 16 14 13 11 11 12 12 13 14 16 18 20 18 18 20
24 22 23 21 22 24 26 27 25 22 24 23 21 16 12 6 11 11 7 6 5 6 6 5 6 10 12 13 14 9 10 7 9 10 10 11 12 15 16 15 17 11 13
20 20 27 27 27 24 23 25 26 20 24 25 23 16 13 11 9 10 8 5 6 6 5 5 2 6 11 10 10 11 9 8 9 9 9 9 12 14 13 11 11 11 7
20 17 25 27 20 22 21 24 23 25 24 18 19 21 16 15 9 10 7 5 5 4 2 4 5 7 9 11 9 10 11 9 9 9 8 10 12 12 10 12 12 9 6
22 19 18 28 23 19 20 22 24 26 23 17 16 21 17 12 11 8 6 5 5 3 4 3 3 5 7 10 11 10 10 11 9 10 10 9 9 10 9 10 7 7 4
25 24 22 25 27 25 20 22 24 23 26 25 18 19 18 14 13 10 7 7 5 4 4 2 4 5 6 8 11 12 11 10 9 10 10 11 8 8 8 7 7 6 7

GFSGL_sfc_temp_024.txt.gz
Temp
50 49 48 47 47 44 43 43 43 43 43 43 43 41 40 39 39 37 36 36 35 34 34 34 34 34 33 33 34 36 37 38 33 34 35 38 37 38 41 44 45 44 43
49 49 48 47 46 43 43 43 42 42 43 45 43 41 41 39 38 36 35 35 34 33 33 33 33 37 32 32 31 32 34 35 32 29 31 33 35 37 37 36 43 48 45
49 47 46 47 45 44 42 42 42 42 43 42 42 41 41 39 37 36 35 33 32 32 31 31 31 31 30 30 30 31 32 36 31 29 29 31 32 34 34 35 36 36 43
47 47 45 44 45 43 41 43 43 43 41 43 42 42 40 38 37 35 34 31 30 31 31 31 30 29 29 29 31 30 31 29 29 28 27 28 29 32 32 29 29 31 34
47 45 44 45 44 43 43 43 41 41 42 42 42 41 39 36 37 32 32 31 30 29 30 30 30 32 35 34 33 30 28 27 27 27 26 26 27 27 27 28 26 27 29
45 44 45 43 43 41 41 40 39 40 40 39 39 38 35 38 36 36 34 29 30 29 27 29 29 32 32 33 33 34 34 30 27 27 27 26 25 25 26 25 24 24 23
43 43 42 41 41 40 40 39 40 35 35 36 36 35 32 32 36 37 36 31 29 27 26 27 29 32 31 29 30 32 32 33 31 30 28 27 26 26 26 25 24 23 23
41 41 41 40 39 38 36 37 36 34 34 35 32 31 31 34 35 34 33 27 26 27 27 27 27 27 28 29 29 28 29 29 30 30 28 28 28 29 28 29 28 27 29
40 40 40 39 38 37 37 36 33 32 32 32 32 30 29 29 35 34 29 24 25 25 27 27 28 27 29 31 28 27 26 28 32 34 35 34 33 33 34 31 28 27 22
39 39 39 39 37 36 35 34 33 32 32 31 31 29 32 27 32 33 31 24 19 24 25 27 29 28 29 29 27 25 25 27 27 27 27 28 30 30 32 29 27 24 24
40 39 38 37 36 36 35 35 33 29 29 26 25 26 27 28 26 31 30 25 23 23 23 24 26 28 30 30 30 26 26 29 27 27 26 26 27 28 29 30 30 27 25
38 36 35 35 36 36 32 30 29 27 27 23 13 18 22 23 29 28 29 29 28 22 23 25 25 29 29 28 28 29 29 27 27 25 25 25 26 27 29 30 31 32 31
34 32 32 33 33 32 29 28 27 26 21 21 23 16 20 23 21 27 27 28 27 23 25 26 28 27 27 26 27 27 26 25 24 23 24 26 27 29 30 30 31 30 32
32 32 31 30 31 30 30 29 27 20 19 23 20 19 16 19 18 20 22 18 25 25 23 24 24 25 24 24 24 25 25 25 24 23 24 26 28 27 27 29 27 30 28
32 32 29 28 28 29 29 27 27 25 23 20 19 18 7 6 17 27 27 24 24 22 16 18 20 21 21 21 22 22 23 24 23 23 24 24 25 26 26 27 28 27 25
31 29 27 25 24 27 27 27 32 31 33 33 32 18 14 23 29 30 29 28 28 25 15 13 16 17 16 18 18 19 20 21 21 22 21 22 23 24 25 25 24 24 23
30 31 26 26 25 24 25 28 23 26 31 31 32 32 30 29 30 30 29 27 26 22 9 9 12 16 16 18 17 18 17 19 20 20 20 20 21 23 23 23 23 22 23
30 27 25 25 23 23 25 26 26 19 15 17 26 30 30 29 30 29 28 23 12 14 10 7 12 15 16 17 16 16 16 16 15 16 17 17 18 21 21 21 22 20 22
31 24 20 27 26 27 26 25 23 21 20 22 16 20 19 27 27 27 25 8 7 7 9 9 6 12 13 15 13 13 11 12 11 11 13 14 15 18 18 20 20 17 17
32 24 20 25 27 25 26 24 25 21 24 23 16 13 13 13 6 2 -0 -2 -1 5 4 8 8 8 7 10 10 10 11 10 10 10 9 10 12 15 16 17 17 16 15
29 25 26 28 27 26 25 25 24 23 23 16 22 18 12 11 7 5 6 2 3 4 1 5 3 1 4 7 12 9 8 3 8 8 8 9 9 11 15 15 12 13 14
24 24 21 21 21 16 20 22 26 22 19 16 16 15 11 4 5 10 10 7 6 5 5 3 5 5 5 7 8 4 6 3 4 6 7 8 9 12 12 10 9 5 7
18 16 18 21 21 22 13 18 23 23 19 24 22 15 11 15 13 13 12 9 4 4 2 2 -1 3 2 1 2 7 7 7 7 6 4 6 9 10 7 6 8 6 4
19 16 18 20 22 21 14 16 23 22 25 18 13 12 13 15 10 9 9 5 -0 0 -3 0 2 5 5 0 1 5 9 7 8 9 7 6 8 9 7 7 8 6 2
25 23 22 21 24 23 16 16 19 24 23 24 15 8 11 16 15 10 12 5 6 1 2 1 -1 3 2 2 4 6 5 8 8 9 8 9 6 6 7 6 4 7 4
30 27 26 25 24 25 25 18 18 22 21 24 20 13 14 13 13 8 7 2 5 4 0 -1 1 3 2 2 5 6 5 6 8 10 8 9 6 6 5 5 5 5 7

GFSGL_sfc_temp_027.txt.gz
Temp
47 47 46 45 45 44 42 41 41 41 41 43 43 42 41 40 39 37 36 35 34 33 32 32 32 32 31 30 30 31 30 29 27 32 34 36 35 35 38 37 39 39 40
46 45 45 44 44 43 41 41 40 40 43 41 41 41 41 39 39 38 36 35 33 31 31 30 30 35 29 29 29 29 29 30 29 27 29 30 32 34 34 34 39 43 38
45 44 43 43 42 41 41 41 40 41 40 40 40 40 39 40 39 36 35 33 31 31 30 30 30 29 27 27 28 28 28 32 29 28 29 29 29 30 31 32 34 32 39
44 43 42 41 42 41 40 40 40 40 39 38 39 39 40 39 38 35 33 31 31 31 31 30 29 28 27 27 28 27 30 28 28 28 27 28 28 30 29 28 28 29 29
43 42 41 41 41 40 40 40 40 38 39 40 40 38 38 37 36 32 32 32 30 29 30 30 30 31 34 33 31 28 27 28 28 27 27 27 27 26 26 27 26 26 27
42 41 41 41 40 39 38 37 37 40 38 37 36 35 33 37 36 37 35 29 30 29 27 29 29 31 31 33 32 32 31 27 26 26 26 25 25 25 26 25 24 23 22
41 41 40 39 38 37 37 36 37 36 34 34 32 32 31 32 36 35 34 30 28 27 26 26 28 31 30 28 30 31 31 32 30 27 26 26 26 26 26 24 23 23 23
39 39 39 38 37 36 35 37 37 36 31 30 30 31 30 32 34 34 31 26 25 26 26 26 26 26 27 29 28 28 28 30 30 30 28 28 28 28 28 28 27 28 27
38 37 37 37 36 35 34 33 33 31 30 30 31 29 27 27 33 33 30 24 25 24 27 27 27 26 28 30 27 26 26 28 32 33 33 33 33 33 32 29 27 26 21
37 37 37 36 35 34 33 32 34 33 32 31 30 28 30 25 30 31 30 21 16 23 24 26 28 28 29 30 27 25 24 27 28 27 27 28 30 29 31 28 25 23 23
38 37 36 34 33 33 32 32 30 28 28 25 26 26 27 27 25 30 30 21 22 23 23 24 26 29 30 29 29 26 26 27 27 28 28 27 27 28 27 28 27 25 23
36 34 33 32 33 33 29 28 29 28 27 25 12 17 22 23 28 28 29 29 28 21 23 24 25 29 28 27 27 28 28 26 25 25 25 25 26 27 29 29 30 30 30
33 32 32 32 32 31 29 27 27 26 21 21 22 16 19 23 21 27 27 28 28 21 22 25 27 27 26 25 26 26 25 24 23 22 23 25 26 28 29 30 30 31 31
33 33 32 30 30 29 30 29 26 20 18 22 20 18 16 19 18 19 23 18 24 23 19 19 20 24 23 23 23 23 23 23 23 22 23 25 27 27 27 28 28 30 28
34 33 31 30 28 29 29 27 27 26 23 21 20 19 6 6 17 27 26 21 16 19 12 10 13 17 18 19 20 21 21 21 20 21 21 21 23 25 26 27 27 27 24
32 32 30 28 24 27 28 27 31 30 32 32 32 19 13 23 28 31 30 28 27 24 13 6 3 7 12 16 16 17 18 17 18 19 19 19 20 22 24 25 25 25 24
32 31 30 28 26 24 25 27 24 26 31 31 32 32 30 28 30 30 29 27 25 20 7 4 -1 4 6 15 15 15 14 15 16 16 16 16 17 20 21 22 22 23 23
31 29 28 28 28 27 26 27 25 23 15 17 26 29 31 30 29 29 28 23 12 12 9 5 2 3 7 13 14 14 13 12 11 12 12 13 14 16 18 20 21 18 19
32 29 28 25 27 23 26 22 24 24 18 18 16 19 18 29 28 27 24 8 6 6 8 8 3 5 5 7 3 7 7 8 8 6 9 10 10 13 16 17 17 16 16
31 30 27 24 25 24 24 21 24 23 22 23 14 14 15 12 6 3 -0 -3 -3 5 3 7 8 6 2 2 -2 -2 3 5 8 8 7 6 7 10 13 14 15 12 13
30 30 28 27 23 22 21 22 24 24 24 18 15 12 12 13 10 9 11 4 6 6 3 6 2 -1 0 -0 4 -1 -1 -3 5 7 7 7 5 7 11 11 11 11 13
28 27 25 21 19 14 18 18 18 19 19 20 17 15 11 7 13 12 10 10 7 7 7 5 5 5 4 5 3 -5 -3 -4 1 4 5 7 8 8 9 8 7 4 9
26 21 20 20 18 16 12 15 16 18 22 23 23 17 9 10 12 12 11 11 5 5 5 3 -0 2 1 -3 -4 1 -0 -0 2 4 4 5 8 9 6 4 5 5 4
27 23 21 19 14 18 18 16 14 16 19 21 21 17 16 12 11 10 11 9 1 2 -2 1 4 6 4 -3 -5 -2 3 -1 1 5 5 6 7 9 7 7 7 5 4
28 27 25 24 22 23 23 21 17 16 18 19 18 20 17 14 11 12 10 8 5 1 4 3 3 4 5 3 1 3 0 3 -0 2 4 8 5 4 5 7 4 7 4
30 29 28 27 23 23 24 24 22 21 19 20 23 20 19 19 19 17 13 8 6 6 5 0 2 4 4 2 4 3 1 1 -1 1 1 7 7 5 4 4 5 5 7

GFSGL_sfc_temp_030.txt.gz
Temp
45 44 43 42 42 42 41 41 40 39 40 40 40 40 38 38 40 37 37 36 34 33 33 32 31 32 30 30 30 30 29 29 26 30 34 36 36 36 39 39 40 39 40
43 43 43 42 42 41 40 40 39 38 39 39 39 38 38 40 39 36 36 35 33 32 32 31 31 34 30 29 29 28 28 29 27 26 31 32 33 35 35 35 39 43 38
43 42 41 41 40 39 38 38 39 38 38 37 38 39 40 38 37 38 35 33 32 31 31 30 30 30 28 28 28 28 28 30 30 29 29 32 32 33 33 34 34 35 39
43 41 40 39 38 38 38 38 38 38 36 36 40 38 38 38 39 36 33 32 31 31 31 30 30 29 28 28 29 28 29 28 28 27 29 29 30 32 31 31 31 32 33
42 40 39 39 39 38 37 36 36 36 37 39 39 37 34 35 35 32 32 31 29 29 30 30 31 31 34 33 31 29 28 26 27 27 27 28 29 29 28 31 29 29 31
40 39 39 39 38 37 36 35 35 36 37 36 34 32 31 35 36 36 33 29 29 28 27 28 28 30 30 32 31 31 31 27 25 25 26 25 27 29 30 29 28 26 26
39 39 39 38 37 36 35 34 35 34 31 31 31 31 29 30 35 35 33 29 27 26 26 26 27 30 29 28 29 30 30 31 29 28 26 27 27 29 29 27 27 26 26
38 38 38 36 35 34 34 37 33 34 35 29 29 29 29 31 33 33 32 26 25 25 26 26 26 26 27 29 28 28 29 30 30 31 29 29 30 31 30 29 29 28 29
37 36 36 35 34 33 33 32 32 32 31 30 30 29 27 27 32 32 30 25 24 24 27 27 27 27 29 31 28 26 27 29 32 33 33 33 33 33 33 30 27 26 25
36 36 35 34 33 31 31 30 31 31 30 30 30 28 30 25 29 31 30 22 16 23 25 26 27 28 30 30 26 25 24 27 28 29 30 30 31 30 31 29 28 25 25
36 35 34 33 31 31 29 30 30 28 28 25 26 26 27 27 25 30 31 22 22 24 23 24 25 28 29 29 28 25 25 27 26 27 27 28 29 29 29 29 29 27 25
34 33 32 32 32 32 29 28 28 27 27 24 13 17 22 23 28 27 30 29 28 19 21 23 23 28 28 27 26 27 27 25 24 24 24 25 26 27 29 31 30 29 30
32 32 34 34 32 31 28 27 26 25 21 21 22 16 20 24 21 27 27 28 27 18 21 24 25 25 25 24 25 26 24 23 22 21 22 23 25 27 29 29 31 31 31
32 32 34 33 31 30 30 29 26 20 18 22 20 19 17 18 18 19 23 19 23 22 18 17 16 21 17 18 21 22 21 21 20 20 20 22 25 26 27 29 28 30 29
31 33 33 32 29 29 29 27 28 26 24 22 21 19 9 7 17 24 25 18 13 18 11 9 11 13 14 17 18 19 19 19 18 18 19 20 21 23 25 27 27 27 26
30 32 32 30 27 27 27 28 31 30 31 32 32 22 14 24 28 30 30 28 27 23 12 5 0 -0 5 13 14 15 16 15 15 17 17 18 18 19 22 25 25 25 25
29 32 31 29 28 26 25 24 25 28 32 31 32 32 32 26 29 30 29 27 25 20 7 5 -2 -3 1 11 13 13 13 13 14 13 14 14 16 18 20 21 22 22 23
31 30 30 29 28 28 24 24 25 23 19 17 26 29 30 32 31 30 29 23 12 12 9 6 2 2 7 10 11 11 12 11 11 10 11 10 11 15 17 17 18 17 19
32 31 29 28 27 26 25 24 22 20 22 20 17 19 18 30 30 28 26 11 9 8 9 10 5 7 8 8 1 0 -3 5 8 6 8 9 7 10 14 16 16 13 14
33 31 29 26 27 22 21 23 24 22 23 23 20 16 13 15 9 4 2 -2 -1 7 7 9 10 9 5 5 -1 -5 0 -1 4 7 7 7 7 8 10 11 13 13 15
32 32 29 26 26 21 20 18 20 20 22 23 22 17 12 17 15 10 9 3 7 8 7 8 7 3 3 2 6 2 1 -4 1 4 7 8 7 7 11 11 11 13 14
30 30 28 26 23 16 19 19 18 17 17 18 19 17 13 17 19 14 12 11 10 10 10 8 8 8 8 9 7 -3 -1 -3 -2 0 2 7 9 10 9 9 10 9 11
30 29 27 24 22 19 16 18 16 13 15 16 17 18 12 15 13 13 14 12 10 8 7 6 5 6 5 2 1 5 4 5 4 -1 -1 2 8 9 9 9 9 9 9
30 29 26 25 22 21 20 21 22 18 19 19 18 19 18 17 17 16 14 13 10 6 1 4 7 8 7 0 -0 1 6 2 2 4 0 1 5 9 9 10 10 9 9
31 30 27 25 25 24 23 23 24 24 22 22 21 18 19 19 17 16 16 14 13 9 7 5 5 7 8 7 4 4 2 4 0 -0 3 2 2 2 7 9 8 10 8
31 30 30 29 27 26 26 25 25 25 25 24 23 23 22 21 20 20 18 15 15 14 13 10 8 7 6 6 6 4 0 0 -0 -0 -1 5 3 4 6 8 9 9 10

GFSGL_sfc_temp_033.txt.gz
Temp
54 54 54 53 53 52 52 52 52 51 52 50 50 49 48 46 45 46 46 45 44 44 44 42 42 43 42 42 42 41 39 38 33 37 41 43 42 42 44 46 48 48 49
55 54 53 52 52 52 51 51 50 49 49 48 48 47 46 44 43 44 44 44 43 41 41 41 41 42 40 41 40 38 38 38 35 32 37 39 39 41 42 43 45 48 48
55 54 52 51 50 49 49 49 48 47 47 46 46 45 44 43 43 44 44 41 41 40 40 39 39 39 38 39 38 36 36 35 34 32 32 38 38 38 38 42 43 45 47
54 53 50 49 48 48 48 47 46 45 45 45 45 43 40 43 43 43 41 41 40 40 39 38 37 37 36 36 35 34 34 32 32 31 32 33 35 37 37 36 37 43 43
51 50 48 48 48 47 46 45 44 43 44 43 42 42 42 42 42 41 40 39 38 37 37 37 36 35 33 34 34 33 32 31 30 30 30 31 32 33 33 36 34 36 39
48 48 47 47 46 45 45 43 43 43 42 42 41 40 40 41 36 36 36 38 37 36 34 35 35 33 34 32 31 31 32 30 30 30 30 29 32 33 36 34 33 31 30
47 46 46 45 45 44 44 43 43 42 41 39 40 40 39 39 35 35 33 37 35 34 33 33 33 34 32 33 32 32 32 32 30 30 28 31 31 34 35 33 33 32 33
45 45 45 44 43 43 43 42 42 42 41 40 38 38 38 37 33 33 32 35 34 33 33 33 32 32 32 31 31 32 33 33 33 32 32 33 34 35 35 35 33 32 36
44 45 45 43 42 41 41 40 41 41 39 37 39 37 36 36 32 32 33 33 32 32 32 33 32 31 30 31 30 29 30 32 34 34 33 33 33 33 34 33 30 30 30
43 44 44 43 41 40 40 39 40 41 39 39 37 36 33 34 30 31 32 32 29 30 32 32 30 29 29 29 28 27 26 29 30 31 33 35 34 34 32 32 32 29 30
43 43 43 42 40 40 39 40 39 39 37 35 33 34 34 33 33 30 31 31 30 29 29 29 30 28 29 29 28 28 26 28 28 29 30 33 34 34 35 34 33 32 31
42 41 41 40 40 39 39 39 38 37 35 33 30 31 34 32 30 30 30 30 30 28 27 28 28 27 27 26 27 27 26 27 27 27 27 28 29 30 33 34 34 34 34
40 40 40 40 40 39 38 37 36 36 34 33 32 32 33 33 33 29 29 28 29 28 28 27 25 25 25 26 25 25 25 25 24 24 25 26 28 29 31 32 33 34 34
38 39 40 39 39 38 38 37 36 34 33 32 32 31 32 32 32 32 31 32 28 28 26 27 23 23 22 23 25 26 25 23 22 23 24 26 28 29 30 31 31 32 33
37 38 38 38 36 36 36 37 35 36 34 33 33 32 30 30 32 30 30 30 30 27 23 25 24 23 23 24 24 24 24 22 22 22 23 24 26 28 28 30 30 32 30
35 37 37 36 36 35 35 36 33 32 32 32 32 31 32 30 29 30 30 30 28 25 25 23 21 20 20 21 22 22 23 20 20 21 22 23 23 25 26 29 30 29 28
34 34 36 34 35 34 33 33 32 34 33 33 33 33 33 33 29 30 31 30 27 25 24 23 21 20 20 21 21 21 20 21 19 19 20 21 21 23 25 26 27 27 28
34 33 33 34 35 34 33 32 32 30 30 32 32 31 32 32 32 31 31 29 27 25 25 24 22 22 22 22 22 21 20 20 19 18 18 19 19 21 22 23 25 24 26
36 34 33 34 33 32 32 32 31 30 30 30 32 29 29 29 31 31 30 28 27 27 26 25 24 23 23 23 21 19 18 18 16 16 17 17 18 19 21 21 23 21 22
37 34 33 34 33 32 32 31 31 30 30 30 30 31 32 25 28 29 28 27 26 26 27 26 25 25 23 22 21 19 19 19 18 18 17 18 18 18 19 19 21 21 23
36 34 33 34 32 32 31 31 31 30 30 30 30 31 28 28 30 30 29 27 26 27 27 27 26 24 24 22 21 21 19 19 18 17 17 18 17 17 18 20 20 21 21
34 34 33 32 32 31 31 31 30 30 30 29 30 31 24 25 28 28 28 28 28 27 28 27 27 26 25 24 23 21 19 18 18 18 17 16 18 18 18 18 18 19 20
33 32 32 32 32 30 30 30 29 29 29 29 29 29 30 28 27 27 29 29 28 27 26 25 25 24 24 22 22 22 20 20 20 17 15 16 17 18 18 18 18 18 18
32 31 31 31 30 30 30 30 30 28 29 29 29 29 29 29 29 29 28 29 28 27 25 23 23 23 24 23 22 21 21 19 19 18 13 15 16 18 17 18 18 16 17
32 32 32 32 31 31 30 30 29 30 30 30 29 30 30 30 29 29 30 28 26 26 25 21 21 22 21 19 21 19 19 15 15 12 16 15 15 14 15 17 16 17 16
32 31 31 31 31 32 31 31 30 30 30 30 30 30 30 30 30 30 29 28 26 25 25 24 22 20 21 21 20 18 13 11 14 9 14 17 16 17 17 16 14 17 16

GFSGL_sfc_temp_036.txt.gz
Temp
61 61 62 62 62 62 61 59 58 58 57 56 55 54 54 54 53 48 45 46 49 48 47 47 47 48 48 48 47 47 45 45 39 43 46 47 46 45 47 47 47 49 51
61 61 61 62 61 60 59 58 57 55 55 54 53 53 53 49 49 50 48 47 46 45 47 47 47 48 46 47 46 45 44 43 38 35 41 41 42 44 44 43 45 48 49
63 63 62 60 60 58 56 56 55 54 53 53 52 48 47 47 47 46 46 47 47 47 47 45 45 45 43 44 44 43 41 40 38 36 36 39 40 43 42 43 42 44 48
62 62 60 58 57 57 55 54 53 52 51 51 51 48 46 48 48 48 47 47 47 46 45 44 43 42 41 40 40 40 39 38 37 35 35 35 38 41 42 40 39 42 41
60 59 58 57 55 54 53 52 52 50 51 51 48 47 48 48 48 45 46 46 45 44 44 43 43 39 35 35 36 36 35 34 35 32 32 34 36 37 37 40 39 41 40
58 56 56 53 53 52 51 50 50 50 50 49 48 47 46 48 35 36 36 43 44 42 42 42 42 39 38 34 34 33 34 33 31 31 32 31 34 36 37 35 36 34 34
56 54 53 52 51 51 51 50 50 49 49 46 46 47 45 45 35 34 34 42 42 41 40 40 40 40 37 36 34 33 33 34 31 33 30 32 32 36 37 35 36 36 35
53 52 52 51 50 50 50 49 49 48 47 45 43 45 45 44 34 33 33 41 41 40 40 39 39 38 37 33 33 32 33 36 37 36 34 35 37 37 36 35 35 36 38
51 51 51 51 50 49 48 47 47 47 47 44 44 44 43 43 33 33 33 39 38 38 39 39 37 36 33 31 30 29 31 34 36 35 34 34 34 34 35 35 32 31 31
50 51 51 50 49 48 47 46 47 47 45 42 43 44 40 40 33 32 33 37 33 36 38 38 34 32 29 30 29 29 27 30 32 33 34 36 37 38 34 35 35 31 31
50 50 50 50 48 47 47 47 47 46 44 42 39 41 41 40 39 31 31 33 34 34 34 35 36 30 29 29 28 29 28 30 30 31 31 34 37 37 37 38 37 33 32
49 48 48 48 47 46 46 46 45 44 42 39 34 36 39 39 35 34 31 31 31 31 32 34 33 29 28 27 28 26 27 27 30 29 29 30 31 32 34 35 35 37 37
46 46 47 46 46 46 46 44 43 43 40 38 36 36 37 38 37 32 31 30 30 31 33 31 27 27 27 29 28 26 27 29 28 27 26 28 30 32 34 34 34 35 37
44 45 45 45 45 46 45 42 42 40 37 35 34 34 36 35 36 36 35 34 32 32 33 32 29 25 28 28 31 31 30 29 26 26 27 29 31 32 32 33 32 34 34
43 44 43 44 44 44 44 42 40 40 38 36 36 35 32 31 33 34 33 34 33 32 28 30 31 30 30 31 31 30 30 29 27 27 26 28 28 29 30 33 33 33 31
40 42 43 42 42 41 41 40 36 34 33 33 33 33 35 34 33 31 31 31 31 29 29 30 29 28 27 28 28 28 29 28 27 26 26 27 27 27 28 30 31 31 30
39 38 38 36 36 37 37 36 35 36 34 33 33 33 33 33 34 32 31 31 31 28 28 31 29 28 28 29 29 29 27 27 26 26 25 26 26 27 27 27 28 29 29
39 35 38 37 36 36 37 36 35 34 32 34 34 34 34 33 33 33 32 31 30 27 29 30 29 29 29 29 29 28 27 26 26 25 25 24 24 25 26 27 27 25 27
41 41 40 36 35 35 35 35 34 33 32 33 35 34 34 32 32 32 32 31 30 30 31 32 31 31 30 30 28 27 25 25 23 23 25 24 24 24 25 26 27 26 26
43 37 36 38 36 35 34 33 33 33 33 33 33 33 36 32 31 31 32 31 30 30 31 32 33 32 30 30 28 27 26 26 25 25 24 24 24 25 24 24 25 25 27
42 42 37 38 36 35 34 34 33 33 32 33 34 34 33 33 32 32 33 32 31 31 32 31 32 31 30 29 29 27 26 25 25 24 24 24 23 23 25 25 24 25 26
39 37 36 34 34 34 34 34 34 33 33 33 34 34 33 32 32 32 33 33 32 33 33 32 31 32 32 31 29 27 26 25 25 25 24 23 24 25 24 24 24 23 24
35 34 33 32 33 33 33 33 33 32 32 33 33 33 33 32 32 32 32 32 33 33 33 32 31 31 32 30 29 29 27 26 26 24 22 22 24 24 24 24 24 23 22
34 33 33 33 32 33 32 32 32 32 32 32 32 32 32 32 32 32 32 32 32 32 32 31 31 31 31 30 29 29 28 27 26 25 20 21 22 23 23 23 24 22 22
34 33 33 32 32 31 31 32 32 32 32 32 32 32 33 32 33 32 32 32 32 32 32 31 31 30 29 29 29 28 27 22 23 21 23 21 21 20 20 22 22 23 21
33 32 33 33 32 32 32 32 32 32 32 32 32 32 32 32 33 32 32 32 31 31 31 32 30 29 29 28 27 26 24 19 19 16 21 23 22 22 22 21 19 22 21

GFSGL_sfc_temp_039.txt.gz
Temp
66 63 62 65 64 64 63 62 61 60 59 58 57 56 56 56 54 51 51 52 49 49 48 49 47 48 48 49 49 49 47 47 41 44 47 48 45 45 46 48 48 48 49
64 60 63 64 64 62 62 61 60 58 58 57 56 55 54 52 52 49 47 46 47 45 48 48 48 50 47 48 48 46 46 46 43 38 41 42 41 43 44 44 46 47 47
60 65 65 64 62 62 61 59 59 57 56 55 55 53 52 49 48 48 49 48 47 48 48 47 46 46 44 44 44 43 43 43 42 38 36 39 41 42 42 43 43 44 46
64 66 64 62 61 60 59 58 57 56 54 54 54 53 50 49 50 50 50 48 47 48 48 46 45 44 43 40 39 39 40 39 37 35 35 36 38 40 40 38 38 42 41
64 64 62 62 60 59 57 56 55 54 54 54 53 51 49 50 50 46 47 46 46 46 46 46 45 41 38 37 37 36 35 34 33 32 33 33 34 35 35 38 36 39 40
62 61 61 59 58 56 55 54 53 53 53 54 52 49 47 50 35 36 37 43 44 44 43 44 44 42 41 37 37 35 34 32 30 30 31 31 33 35 35 34 35 34 32
60 59 58 57 55 55 55 54 53 52 52 50 48 46 46 47 36 35 35 41 43 43 43 42 42 44 40 40 37 35 35 35 33 33 30 31 30 34 35 33 34 33 33
58 57 57 55 54 54 53 52 52 51 49 50 47 44 45 46 36 35 34 39 43 43 42 42 41 40 38 33 33 32 34 35 36 36 34 35 35 36 35 35 34 35 37
55 55 55 55 53 53 52 51 51 50 49 48 47 44 44 44 35 34 34 39 40 40 41 41 40 38 33 31 31 30 32 34 37 37 36 35 35 35 35 34 31 32 30
55 53 55 54 52 51 51 50 50 50 48 48 45 45 42 43 35 34 34 37 35 37 39 40 35 33 30 30 28 28 27 32 33 33 34 36 36 37 35 35 34 29 30
54 53 53 53 52 51 50 49 49 48 47 43 40 41 42 41 40 34 33 34 35 35 35 37 38 32 30 29 29 28 28 29 29 31 32 33 35 35 36 37 37 34 31
52 50 51 50 50 50 48 48 48 48 44 42 36 37 40 40 37 35 33 32 33 32 33 35 35 31 29 29 29 30 28 28 31 30 29 30 30 31 33 35 35 35 36
49 48 48 50 50 50 47 47 46 45 43 40 38 37 37 41 41 35 34 32 31 31 34 34 30 31 30 31 32 30 28 31 29 28 27 29 30 33 34 35 36 37 36
45 46 47 47 47 48 48 48 46 41 39 38 37 35 36 38 39 39 34 34 32 32 33 34 32 30 30 29 32 34 33 32 29 28 28 30 32 31 31 33 32 34 33
46 46 45 45 45 46 47 47 44 43 40 38 37 37 35 34 36 35 34 35 35 33 30 32 32 33 32 33 33 33 33 32 30 29 28 28 29 30 29 32 32 32 30
42 43 43 43 43 44 44 42 40 36 36 35 35 34 36 35 35 34 33 33 32 32 30 30 31 31 30 30 31 31 32 30 30 28 28 28 27 28 28 30 31 30 29
41 41 42 39 39 37 37 37 36 39 35 35 34 34 34 34 34 34 34 32 32 30 27 30 31 31 30 31 32 31 30 30 28 29 28 28 26 26 28 29 28 28 28
43 36 41 42 41 39 37 37 37 37 34 36 34 34 34 34 34 34 34 32 31 30 30 31 31 32 31 32 32 31 30 29 29 28 27 27 26 26 26 26 28 27 27
43 44 43 42 39 37 36 35 34 35 35 35 36 35 34 33 33 33 33 32 31 31 32 31 33 33 33 32 32 30 28 27 27 26 26 26 26 26 26 26 26 26 27
47 39 38 41 39 37 36 35 36 35 35 34 34 35 36 35 32 31 32 32 32 32 32 32 33 34 33 32 31 29 28 27 27 27 26 26 26 26 26 25 25 25 26
46 44 38 40 37 39 37 35 35 35 35 35 34 34 34 34 33 34 34 34 33 34 33 33 33 33 33 31 31 30 28 28 27 27 26 26 25 24 26 27 26 26 26
43 42 40 36 37 35 35 35 35 34 35 35 35 35 34 33 34 33 34 34 34 35 35 34 34 33 33 32 31 30 29 27 27 26 26 25 25 26 26 26 26 25 25
39 36 35 36 35 34 33 35 33 33 34 34 34 34 34 33 33 34 33 33 34 34 34 35 33 33 33 32 32 31 29 29 29 28 25 25 25 25 25 25 25 24 23
37 34 34 34 33 34 33 32 33 33 33 33 33 33 33 33 32 33 33 33 33 33 33 33 34 33 32 32 31 31 31 31 30 27 24 23 24 25 25 24 25 24 24
34 33 33 33 33 32 32 33 33 32 32 32 32 33 34 33 34 33 33 33 33 32 32 32 32 32 31 32 31 30 30 29 27 27 25 23 23 22 21 23 23 23 23
33 34 33 33 32 32 31 31 31 31 31 32 32 33 33 33 34 33 33 33 33 33 33 32 32 31 31 31 31 30 30 26 23 22 24 25 23 23 24 23 22 22 23

GFSGL_sfc_temp_042.txt.gz
Temp
63 61 59 58 58 59 58 56 55 54 53 52 51 50 50 49 47 45 44 44 43 42 42 42 42 43 40 41 40 39 37 37 33 36 40 39 37 37 40 40 42 41 42
62 59 58 58 59 58 57 56 54 52 52 52 51 50 50 47 46 44 43 43 41 40 41 41 42 46 38 38 36 35 35 36 33 31 35 35 34 36 37 37 41 44 41
62 59 58 58 58 58 56 55 54 52 51 50 50 49 48 46 45 44 43 43 42 42 42 41 39 38 35 34 33 32 33 37 33 31 30 33 33 35 35 36 37 37 42
61 60 58 58 58 56 55 54 52 52 50 49 49 49 48 46 47 47 47 43 41 41 40 40 39 38 34 32 33 30 32 30 30 29 29 30 32 34 34 32 32 34 34
59 59 58 58 57 56 54 52 52 50 50 50 49 48 46 46 48 42 41 39 38 38 38 41 39 39 40 36 34 29 28 28 28 27 27 28 29 29 29 30 29 31 32
58 57 58 57 56 53 51 51 50 49 49 49 47 46 44 48 36 37 37 35 37 37 35 36 37 40 38 38 37 36 33 27 26 26 26 25 27 29 29 28 29 27 25
57 57 57 56 54 52 52 51 49 48 47 45 45 45 42 42 37 37 35 34 34 34 34 34 36 41 33 31 33 33 33 34 32 29 27 27 27 28 29 27 27 27 26
56 56 56 54 52 51 51 50 48 47 45 44 43 43 41 43 37 36 35 32 33 34 35 34 33 33 28 29 28 27 29 30 31 33 30 29 30 31 30 30 28 28 30
54 54 54 52 51 50 49 47 47 45 44 43 44 42 40 38 36 35 33 32 32 32 35 34 35 32 31 32 27 25 26 28 34 34 34 34 35 35 35 32 27 26 24
52 51 52 51 50 48 47 46 46 45 45 43 41 40 40 36 36 35 34 29 29 29 31 33 32 30 31 30 22 22 21 25 26 27 28 31 33 33 34 33 31 27 26
51 52 52 51 49 48 46 45 44 43 41 38 36 36 36 36 36 36 35 30 28 28 28 28 29 32 31 31 30 24 23 27 26 26 27 28 30 31 30 31 31 30 28
49 47 48 47 47 48 44 43 43 41 38 37 32 32 32 35 37 35 35 33 33 26 28 28 29 32 32 31 29 30 31 27 23 21 24 25 26 28 30 30 32 32 34
45 43 44 46 47 47 43 41 40 40 34 33 32 31 33 34 33 37 34 34 32 26 28 30 32 32 32 30 32 32 26 23 20 17 21 23 25 29 31 30 31 32 33
42 43 44 44 43 43 43 42 40 35 32 32 31 32 33 32 30 31 30 31 32 30 29 30 27 27 25 25 24 27 25 23 21 19 18 23 25 26 27 29 26 29 29
43 44 42 41 40 41 43 41 36 36 34 32 32 33 32 31 31 32 31 31 31 30 23 23 23 26 25 24 24 25 24 24 21 19 18 20 23 25 25 27 28 27 25
41 40 37 36 36 38 38 37 39 36 36 36 36 33 31 34 35 34 34 34 34 32 23 20 21 23 23 22 21 21 22 22 22 21 19 21 21 21 23 25 28 26 23
37 36 36 34 35 34 34 34 32 36 37 36 35 35 35 34 35 35 34 34 33 31 24 21 22 26 23 23 22 22 20 20 21 21 18 18 19 22 21 23 24 25 23
38 36 37 37 36 37 36 35 34 32 32 32 35 34 34 34 34 34 34 33 28 29 27 25 25 27 27 24 23 23 21 19 19 19 15 16 14 17 20 18 22 21 22
39 39 38 38 36 34 34 34 33 33 32 31 33 32 31 34 34 34 33 28 26 26 28 27 27 28 29 24 22 22 18 16 16 13 14 15 13 17 16 20 16 19 21
43 38 36 37 36 35 34 34 33 32 32 32 32 32 33 29 29 29 29 29 28 27 28 28 27 27 29 28 23 22 20 21 18 18 15 12 14 14 15 14 14 12 19
41 40 37 37 36 34 34 33 33 32 32 32 32 33 32 32 31 31 31 30 29 29 30 29 28 28 28 28 25 22 24 22 21 19 17 15 11 11 17 16 14 16 18
37 37 37 36 35 33 33 34 32 32 31 31 32 31 33 32 31 31 31 31 32 32 32 31 31 30 29 28 27 25 23 22 20 16 17 14 13 14 15 14 16 12 14
35 35 35 35 34 33 32 32 32 31 31 32 32 31 32 32 32 31 31 32 32 32 33 32 31 31 31 29 29 28 26 24 23 19 16 13 13 14 12 12 13 14 11
33 32 33 31 32 32 32 31 31 30 31 31 31 32 32 31 32 32 32 32 32 32 33 32 32 31 31 31 30 29 25 24 24 20 16 12 12 14 13 12 12 13 10
32 31 32 31 32 32 31 29 30 30 30 30 31 31 31 32 32 32 32 32 32 32 33 32 32 32 31 30 29 28 26 26 22 19 19 14 11 10 10 10 9 11 11
29 30 31 31 31 31 28 27 26 27 26 25 26 26 27 28 30 31 31 30 31 31 32 33 32 32 31 30 30 28 27 25 22 19 19 18 15 12 11 13 11 9 12

GFSGL_sfc_temp_045.txt.gz
Temp
57 54 53 52 55 56 55 53 52 51 51 49 48 47 46 44 43 41 40 41 40 38 39 39 38 39 36 35 34 33 31 30 27 30 32 33 32 32 36 36 38 38 38
57 55 55 56 56 56 54 51 52 50 49 48 48 47 47 44 42 42 41 40 39 38 39 38 38 42 34 32 30 29 28 29 27 26 28 30 29 32 32 32 37 41 38
57 57 55 55 55 54 54 52 49 48 47 47 48 46 45 43 43 42 41 40 40 39 38 37 36 35 31 29 29 28 28 33 27 25 26 29 29 30 31 33 33 33 38
57 56 55 54 54 54 52 50 48 47 47 48 47 46 45 44 45 45 43 39 38 37 37 36 35 33 32 31 31 28 29 26 26 24 26 27 28 30 29 27 27 31 30
57 56 54 54 53 51 50 49 48 47 49 48 46 45 44 44 45 40 40 37 36 35 35 36 36 37 41 35 32 27 26 25 24 24 24 25 26 26 26 29 27 28 29
55 54 54 52 51 50 49 48 48 47 47 46 45 44 43 45 38 39 37 34 35 34 32 33 33 37 36 36 36 35 32 25 23 20 24 24 25 26 26 25 25 23 22
53 53 52 52 51 49 49 49 47 45 44 43 43 43 41 39 38 38 37 33 32 31 30 31 33 36 32 29 31 31 30 32 29 26 24 25 25 26 26 25 25 24 24
51 51 49 49 49 49 47 47 45 44 43 42 41 41 40 41 37 37 35 32 32 31 31 31 30 29 28 28 27 25 26 26 28 29 26 25 26 28 27 29 27 27 28
49 49 49 47 46 47 45 43 43 43 42 41 41 40 38 36 37 36 34 31 31 30 32 32 31 28 31 32 27 24 24 25 31 33 32 32 33 34 33 30 27 25 23
47 47 48 47 46 44 43 42 42 42 42 40 39 38 38 33 36 36 34 29 28 28 29 30 33 29 31 31 22 21 19 23 25 25 26 27 30 29 32 29 27 24 25
47 47 46 46 45 44 42 42 42 40 38 35 34 34 35 34 32 36 36 29 28 27 27 26 27 32 31 32 31 22 20 26 26 25 24 25 26 27 28 29 28 27 25
45 45 45 44 43 44 41 41 40 38 34 34 28 30 30 33 35 35 36 35 31 25 27 27 27 33 33 33 30 30 31 28 18 19 19 22 22 24 26 27 28 28 31
43 40 40 41 42 43 39 37 35 35 31 32 30 27 29 31 30 35 35 34 33 28 27 28 31 33 33 30 31 32 27 22 18 14 17 18 20 24 26 27 28 28 29
38 38 38 38 38 38 38 37 34 28 26 29 28 28 27 27 27 26 29 31 32 30 27 27 25 25 22 24 24 27 25 21 19 16 15 18 20 21 21 24 24 25 25
39 38 37 36 35 35 36 34 31 31 29 28 28 28 25 24 29 31 29 28 27 27 26 26 23 20 22 24 24 23 22 21 19 15 15 17 20 20 21 23 25 26 20
36 34 30 30 30 32 32 31 35 34 36 36 36 30 31 34 34 35 35 34 33 31 23 18 12 11 17 23 22 20 18 19 19 18 14 17 16 16 20 22 23 22 21
33 32 31 31 30 31 30 30 31 33 36 36 36 36 35 35 34 35 35 34 33 31 19 18 13 16 18 24 25 21 19 18 19 17 15 13 14 18 17 19 18 21 21
33 32 32 32 31 32 32 32 32 30 30 30 32 34 35 35 35 33 34 32 26 29 27 23 20 20 22 24 26 22 19 16 16 15 11 8 6 11 12 17 18 11 19
33 31 32 33 33 33 34 34 32 31 28 29 30 28 28 33 33 34 34 30 27 25 25 27 26 23 24 25 23 21 16 13 11 7 8 9 6 10 10 14 13 12 12
36 34 35 35 33 33 33 32 32 31 31 31 30 28 29 24 26 29 31 30 28 27 27 25 25 25 26 27 26 22 17 12 11 9 8 10 3 6 7 9 9 9 14
33 33 30 32 32 33 32 33 32 32 31 31 28 27 26 30 31 28 28 29 29 29 28 27 27 26 27 27 25 23 23 20 18 16 14 9 2 7 9 10 8 14 14
30 30 30 29 31 31 31 33 33 29 25 24 25 27 28 31 30 30 31 31 31 31 30 29 28 29 29 28 28 23 22 20 18 15 12 8 9 8 7 9 6 9 10
25 25 27 27 28 29 29 31 32 29 27 24 23 25 25 28 30 30 31 31 31 31 32 31 31 30 29 29 30 28 26 22 22 20 16 11 10 8 5 7 7 7 7
24 25 26 27 28 29 29 28 31 29 26 26 27 27 28 29 31 30 30 32 32 32 32 31 31 31 31 30 30 29 28 26 24 23 18 14 12 11 6 7 7 4 5
21 22 22 22 23 23 24 24 25 24 23 18 18 19 22 23 24 26 27 29 31 32 32 33 32 32 31 31 30 29 27 27 23 20 17 14 12 8 5 6 3 7 5
18 18 16 18 18 19 20 20 21 21 19 18 18 16 18 21 21 22 22 21 20 20 27 30 32 32 32 31 30 29 27 26 22 20 20 18 14 11 5 5 6 5 7

GFSGL_sfc_temp_048.txt.gz
Temp
57 55 54 53 54 54 53 52 50 50 49 49 47 46 45 43 43 42 40 39 38 37 37 36 37 37 35 33 32 31 31 29 25 27 28 29 28 29 32 33 35 34 35
54 52 54 55 55 53 52 51 51 50 49 48 47 46 46 43 42 41 41 40 38 37 38 38 38 41 34 32 30 30 28 28 26 24 25 27 27 29 30 29 34 38 34
56 55 54 54 54 52 51 51 50 48 47 46 46 45 45 43 41 41 40 40 38 38 37 36 35 34 32 30 29 28 27 31 26 24 25 26 26 28 28 30 30 30 35
55 53 53 53 53 52 51 47 46 45 45 44 45 45 44 43 43 44 43 40 38 37 38 36 36 33 32 31 30 28 28 26 25 24 25 25 25 28 27 25 26 29 29
53 53 52 52 51 50 48 46 45 46 45 45 46 44 44 44 45 42 40 37 36 36 36 36 35 36 39 35 30 27 26 24 24 24 23 24 24 25 24 26 25 26 27
54 52 51 50 50 47 46 45 46 46 45 46 45 44 42 44 41 39 38 35 36 34 32 33 33 36 36 37 36 34 30 25 23 19 21 21 23 24 24 24 24 23 22
51 50 50 49 48 47 47 47 46 45 44 43 41 41 41 40 39 39 38 34 33 32 31 31 32 35 33 30 32 32 30 31 28 23 21 21 21 24 24 23 24 24 24
47 47 48 47 46 46 46 45 43 43 42 41 40 40 39 40 38 38 37 32 31 31 32 32 29 29 29 29 27 26 27 26 27 28 24 23 24 27 27 28 27 27 26
45 45 45 44 45 45 42 41 42 40 40 40 40 38 37 36 38 37 35 30 29 31 33 32 30 29 31 33 27 25 25 26 31 32 32 32 32 32 32 28 24 23 21
43 44 45 45 42 41 41 40 40 40 39 38 37 36 37 34 37 37 35 27 27 29 30 30 33 30 32 31 23 22 19 24 25 25 26 27 28 28 30 27 25 22 23
45 45 43 43 42 41 39 39 38 37 36 33 33 33 33 33 32 37 36 29 29 29 28 28 28 32 32 32 32 24 21 26 25 25 24 24 25 25 27 27 27 24 23
43 42 42 40 40 40 36 36 35 33 32 31 26 30 29 31 34 35 36 35 32 27 28 30 28 32 33 33 31 31 31 27 21 19 19 20 20 22 24 25 26 27 27
41 38 38 38 38 38 34 33 32 32 28 29 29 28 28 30 31 35 35 35 34 29 29 29 31 32 33 31 32 31 27 22 18 13 17 17 19 22 25 25 26 27 27
36 36 36 35 35 34 34 33 31 26 24 28 27 27 27 28 28 29 30 31 34 32 27 29 26 27 22 23 23 27 24 22 20 18 15 16 19 20 20 21 20 24 24
36 36 34 33 33 32 33 32 31 31 30 29 28 28 25 25 28 32 32 29 28 30 26 24 25 22 22 23 23 23 24 22 19 17 15 15 17 19 18 21 21 22 19
34 33 31 30 29 31 31 33 35 34 34 35 35 30 31 33 34 35 35 35 33 31 27 22 24 19 20 20 21 22 22 20 20 20 15 16 15 15 16 20 20 17 18
31 31 31 31 31 30 30 30 30 35 35 36 36 36 36 36 35 35 35 35 33 31 26 21 20 18 18 20 21 21 22 21 20 20 18 15 13 15 14 16 16 17 18
31 31 30 30 30 31 30 30 31 31 31 32 34 34 35 35 35 35 35 33 30 30 27 27 24 21 20 21 22 22 22 18 18 17 15 11 5 10 11 13 15 8 13
32 31 31 31 31 30 32 32 33 33 32 33 34 29 29 33 34 34 34 31 29 25 27 27 27 26 23 22 22 21 19 17 17 12 12 10 3 10 8 11 10 10 10
29 28 27 29 29 29 29 29 31 31 31 32 31 29 23 20 20 25 29 31 31 28 27 27 27 27 25 24 23 23 18 18 17 15 9 5 2 5 6 6 5 6 12
24 25 24 26 26 26 26 26 27 27 28 30 32 29 23 22 26 29 30 29 29 30 28 27 27 27 27 25 25 25 22 21 21 18 15 12 3 5 8 6 6 10 12
23 22 24 24 26 25 26 27 27 28 28 29 30 27 22 19 28 28 29 31 31 31 31 30 28 28 27 27 26 26 24 22 21 19 15 12 11 9 5 6 5 4 7
21 20 20 21 22 22 23 25 24 23 25 27 26 24 24 24 25 26 28 31 31 31 31 30 29 28 29 29 29 28 26 24 24 22 18 12 10 9 2 5 5 4 4
16 17 16 16 15 16 18 18 20 21 20 20 19 19 19 18 19 22 22 23 23 22 29 31 31 30 30 29 29 29 29 28 27 23 22 16 14 11 6 5 6 2 2
12 13 10 10 11 12 13 15 15 14 15 15 16 16 17 17 16 15 16 18 19 19 19 20 28 31 31 31 30 29 29 28 26 25 22 20 17 14 11 9 3 6 2
11 11 8 8 9 9 9 10 10 10 11 12 13 13 13 14 12 11 13 13 14 16 17 19 20 26 32 32 31 30 29 27 25 23 21 20 16 12 12 13 8 3 6

GFSGL_sfc_temp_054.txt.gz
Temp
56 55 52 50 50 50 50 48 47 46 46 45 45 44 45 44 43 41 40 39 37 37 37 36 35 35 34 33 33 33 32 30 27 30 30 31 30 30 31 31 32 32 33
54 51 50 50 50 50 47 48 47 47 47 46 46 45 45 44 42 41 39 40 38 37 37 36 35 38 33 33 31 32 30 30 28 26 28 28 28 30 29 29 31 34 33
51 50 50 49 49 48 48 47 48 47 46 45 45 45 44 43 41 41 41 39 37 36 36 35 34 33 32 32 32 30 29 31 28 26 26 28 28 29 29 29 29 31 33
50 51 50 50 49 47 49 48 47 45 44 44 44 45 44 44 43 41 40 38 37 36 35 34 34 33 32 32 31 29 29 27 27 25 25 26 27 28 27 25 26 29 29
49 49 49 49 50 49 47 45 44 43 42 46 45 44 44 43 42 39 38 36 35 34 34 34 33 34 38 35 32 30 28 26 25 25 24 25 25 24 23 26 24 26 27
48 48 49 48 47 46 45 43 43 44 45 45 43 43 41 43 41 40 38 35 34 33 32 32 32 36 36 37 38 37 31 26 25 23 23 23 23 23 24 23 23 23 22
47 48 47 47 45 44 45 45 44 43 42 41 40 40 39 38 39 40 39 34 33 32 32 32 32 35 36 34 34 36 34 33 28 25 23 23 21 24 25 23 24 24 24
45 45 45 45 45 45 45 43 42 41 40 39 38 37 36 37 38 39 38 34 32 32 31 31 30 31 31 32 30 28 29 29 29 29 26 25 25 27 26 27 25 25 27
45 45 45 45 44 43 42 41 41 39 38 36 36 35 34 34 37 37 36 32 31 31 32 31 31 30 32 35 29 27 27 28 32 33 33 32 32 32 32 27 23 22 19
44 43 44 43 42 41 40 39 38 36 35 34 33 33 34 32 36 37 36 30 29 31 30 30 34 32 32 33 28 25 22 26 27 27 27 29 30 29 30 27 25 20 20
43 43 43 42 41 40 38 36 34 32 31 31 31 31 32 32 33 36 37 31 31 30 30 29 30 33 34 34 33 26 24 28 26 26 26 26 27 27 27 28 27 24 21
43 40 40 38 37 37 33 32 32 31 30 30 27 30 31 31 34 35 36 36 33 30 30 30 30 33 34 34 33 31 30 27 25 23 22 22 22 23 26 27 27 27 27
36 35 34 34 34 33 32 31 30 30 28 29 29 29 31 33 30 34 35 35 34 31 31 31 32 33 34 32 32 32 30 27 25 23 22 22 23 25 27 26 27 27 26
33 32 32 31 32 31 31 31 29 27 27 30 29 30 30 31 31 29 30 29 32 32 30 32 30 30 29 30 29 30 29 27 26 24 22 22 22 22 22 23 21 22 22
31 31 30 30 29 30 30 29 29 29 29 29 30 30 30 30 32 34 32 31 31 30 29 28 29 28 27 27 27 27 27 26 24 23 20 21 20 21 21 22 21 21 18
30 29 27 27 26 28 28 28 33 33 34 34 35 32 32 34 35 36 36 35 34 33 28 28 27 27 25 26 25 25 25 24 25 23 20 21 20 19 20 20 20 19 17
26 27 25 25 25 25 25 24 22 27 31 31 32 32 33 33 34 34 35 36 35 33 29 28 28 27 26 26 26 25 24 25 25 22 22 20 19 19 18 19 18 18 17
24 23 22 22 21 21 20 23 24 24 23 24 28 29 30 29 31 33 33 34 31 31 30 29 29 28 27 26 26 25 24 24 22 21 19 18 16 17 17 17 18 14 15
24 22 21 19 19 22 23 23 21 22 23 20 21 23 23 25 28 31 32 28 29 27 27 27 30 29 27 27 26 25 24 24 21 17 18 16 14 16 15 16 16 11 11
23 21 19 20 19 18 18 18 19 20 18 17 17 17 19 19 18 18 22 26 25 23 27 28 29 30 29 27 26 25 24 23 20 17 17 16 15 16 15 14 12 13 16
19 20 16 17 16 15 14 15 15 15 13 14 14 15 16 16 16 15 15 17 17 18 19 21 27 29 28 28 26 25 24 23 22 20 20 17 16 16 16 14 13 14 15
16 15 14 13 13 11 11 12 13 10 10 10 10 12 13 12 14 13 13 13 13 14 16 18 18 20 27 28 28 26 25 24 23 21 20 18 17 18 16 12 12 12 14
12 7 8 10 7 6 5 6 8 5 6 6 6 8 9 9 10 11 11 12 12 11 12 14 15 16 19 19 27 28 26 25 26 25 22 19 18 18 14 13 12 11 11
7 1 6 3 0 3 -4 -3 -1 0 3 3 2 5 5 7 7 9 9 10 10 10 10 10 12 13 15 17 19 22 29 29 28 27 25 22 20 18 16 14 13 11 10
-2 -5 -5 -4 -6 -8 -9 -6 -7 -6 -2 -1 0 2 4 4 5 6 6 8 9 8 9 9 9 10 12 13 16 19 20 28 29 27 26 23 21 18 17 17 12 12 9
2 -1 -5 -7 -10 -11 -13 -11 -10 -11 -6 -3 -2 -1 1 2 4 4 4 6 6 7 8 9 8 8 10 13 16 18 19 23 29 27 25 23 21 19 18 17 14 13 13

GFSGL_sfc_temp_057.txt.gz
Temp
64 62 61 60 60 57 56 54 53 49 49 50 49 47 48 46 46 44 44 44 47 48 48 48 47 48 48 48 47 47 46 45 40 44 46 45 43 43 43 44 42 42 43
63 61 60 59 56 55 52 50 48 47 49 50 49 46 45 43 44 43 45 48 48 47 48 47 46 48 46 47 46 45 45 45 42 39 43 43 41 42 41 40 41 42 41
59 58 55 54 53 52 50 48 48 48 48 48 45 44 47 46 46 49 50 48 48 48 48 47 47 47 45 46 45 45 45 44 43 40 39 43 41 41 40 40 40 40 41
55 54 52 52 51 50 49 48 48 50 47 45 45 44 44 45 47 50 49 49 48 48 47 47 47 46 46 46 45 44 44 42 41 39 39 39 40 41 39 36 36 39 38
53 52 51 51 50 49 49 49 46 46 45 44 44 44 46 47 48 47 50 49 48 47 47 46 46 45 42 43 44 44 42 41 40 38 38 38 37 37 35 36 34 36 37
54 51 50 50 49 47 46 44 44 44 44 45 45 44 44 45 42 41 43 48 48 46 46 47 46 41 41 38 38 37 39 40 37 37 37 35 36 36 36 34 33 32 30
52 51 48 46 46 45 44 45 43 43 45 44 42 41 41 45 41 40 39 48 47 47 47 46 46 44 40 43 39 37 36 35 33 38 34 35 34 36 35 33 33 32 32
47 47 47 46 45 47 45 44 44 43 42 43 42 45 46 46 39 38 38 46 46 46 46 45 45 45 44 42 41 40 40 40 39 37 37 38 38 37 36 34 32 32 34
46 45 45 45 44 45 43 42 42 42 43 45 45 45 44 45 39 37 38 45 44 44 45 44 44 44 40 36 37 36 37 38 37 35 35 34 33 32 33 34 30 30 28
46 47 48 46 43 42 42 43 46 46 44 44 44 44 41 42 40 37 39 42 40 41 44 43 37 40 36 34 35 34 32 36 38 37 37 36 35 36 33 34 34 28 28
46 45 44 44 45 45 45 45 44 44 42 41 40 41 42 41 42 38 37 39 40 40 41 41 42 35 34 34 35 35 33 37 35 35 36 36 36 36 37 37 36 33 29
43 42 44 43 43 43 42 42 42 42 40 39 35 38 41 41 38 38 37 36 38 37 37 41 41 36 34 34 35 35 33 32 33 32 32 32 33 34 36 37 36 35 35
42 41 40 41 40 41 41 40 40 40 38 37 36 35 37 39 40 37 35 34 35 35 38 38 36 35 34 34 33 34 32 32 31 30 30 32 34 36 36 34 34 34 33
39 38 39 38 38 39 39 39 38 36 35 34 34 34 34 35 36 38 37 38 37 36 35 35 34 33 33 34 34 33 34 34 32 31 32 34 35 32 31 33 30 31 29
37 36 35 35 35 35 36 35 34 35 33 32 32 32 30 30 32 32 32 33 33 34 34 34 33 33 32 31 32 33 34 33 31 32 30 31 30 31 30 32 30 30 27
34 34 31 32 32 32 32 32 31 30 31 31 31 30 31 30 29 30 30 32 32 33 33 31 32 32 31 31 31 32 32 31 32 32 30 30 29 30 30 30 30 28 27
30 30 30 29 29 28 28 28 27 30 30 30 29 28 28 27 27 28 29 29 32 32 31 33 32 32 31 30 30 32 31 32 32 31 30 30 29 30 28 28 28 28 27
28 25 28 28 27 27 27 26 26 25 24 25 27 26 25 24 25 26 26 26 26 30 31 32 32 33 32 32 32 32 32 32 30 30 30 30 29 29 28 27 28 26 26
27 26 25 25 25 23 24 24 24 24 22 22 23 24 22 21 23 23 23 21 20 21 22 22 28 32 32 33 32 32 31 30 30 29 29 29 28 28 28 28 28 24 23
26 22 22 23 23 21 21 21 21 20 19 19 19 18 19 18 17 19 19 19 18 18 18 19 21 23 26 32 32 31 30 30 29 29 29 29 29 28 28 28 27 26 26
24 22 18 21 19 18 18 18 18 17 16 16 16 16 12 14 15 16 17 16 16 16 16 16 18 19 22 24 28 32 31 30 29 29 29 28 28 26 28 28 27 26 26
19 18 18 17 17 15 14 15 15 14 14 13 13 14 12 14 14 14 15 14 14 16 15 15 14 16 18 20 20 22 29 30 29 29 29 28 27 27 27 26 26 25 25
16 14 14 14 13 11 11 11 11 11 11 11 11 11 11 12 11 12 13 13 13 13 14 14 13 14 16 17 19 20 22 25 30 30 28 28 27 27 26 25 25 24 24
14 12 12 11 10 9 8 7 8 7 7 8 8 8 9 9 10 10 11 11 11 12 12 12 13 13 13 14 16 19 21 21 23 29 29 28 27 26 26 25 24 23 24
12 11 10 9 7 6 5 6 6 5 6 6 6 7 7 8 8 8 10 10 9 9 9 10 12 12 12 11 13 16 18 16 17 21 30 29 28 26 25 25 24 23 23
13 11 9 8 7 6 5 3 3 3 3 3 4 4 5 5 6 6 7 7 7 6 7 9 10 10 11 12 14 15 13 14 17 19 27 29 27 26 25 24 23 23 22

GFSGL_sfc_temp_060.txt.gz
Temp
76 72 65 64 65 64 62 60 58 57 58 58 52 51 48 48 47 46 47 44 43 49 54 54 54 55 55 55 55 54 52 52 47 51 54 55 52 49 50 51 50 49 49
75 71 66 64 63 62 60 58 56 54 51 50 48 48 48 46 45 43 43 45 50 53 54 54 53 55 53 54 53 52 52 52 49 45 50 51 50 51 49 47 48 50 48
70 64 61 60 58 56 53 50 48 47 46 46 48 46 44 45 44 44 45 51 54 54 55 54 53 53 52 53 53 52 52 52 50 48 47 50 50 49 48 48 47 47 49
60 57 54 53 52 50 49 48 47 49 48 49 46 46 44 43 44 46 51 53 54 55 54 53 53 53 52 52 52 52 51 50 49 48 47 47 47 48 48 45 44 46 46
54 54 52 52 51 49 48 48 49 49 47 48 45 44 44 45 46 48 51 52 53 54 54 54 54 52 47 48 52 51 50 48 48 45 44 43 43 43 44 45 42 43 44
55 52 51 51 50 49 50 50 52 50 49 46 44 43 44 45 42 41 43 51 53 53 52 54 55 48 46 40 39 39 43 46 44 41 39 37 40 44 45 43 41 39 36
56 54 54 55 54 54 53 50 46 46 45 43 43 44 44 45 41 41 40 50 52 53 53 53 53 55 48 50 41 37 38 37 35 42 39 39 41 44 43 41 40 39 38
56 55 54 53 51 50 50 48 46 45 45 45 46 44 47 53 41 40 38 49 51 52 52 52 52 52 52 49 48 47 47 45 41 41 42 44 44 45 43 41 39 38 39
54 54 54 54 51 49 47 45 45 45 45 45 52 51 51 52 41 39 40 48 49 49 51 52 52 51 46 41 46 44 45 43 42 39 38 37 36 35 35 38 35 34 32
54 53 53 54 52 47 45 46 52 54 53 53 50 51 46 49 43 39 41 45 44 46 48 49 43 45 42 37 43 41 39 42 41 41 41 38 36 39 34 37 37 32 34
54 53 51 50 51 52 52 52 52 52 50 47 46 48 48 47 47 39 38 41 41 41 42 44 47 40 37 37 37 41 39 43 39 41 41 40 40 42 42 39 39 37 34
52 49 50 51 50 51 50 50 50 50 46 45 41 43 45 45 40 40 37 37 37 38 38 40 41 38 36 36 36 36 36 35 38 36 35 36 36 37 40 41 40 40 41
50 49 48 48 48 48 48 47 48 46 44 42 41 40 41 42 42 38 36 34 34 36 39 38 36 35 34 34 33 34 34 36 34 33 34 35 36 40 40 39 39 39 39
47 46 46 44 46 46 47 46 45 41 39 38 37 37 37 38 38 36 35 36 34 35 36 39 37 34 34 34 34 34 34 34 34 34 36 37 38 37 36 36 34 34 33
45 44 43 42 42 44 43 41 39 38 34 34 35 34 31 30 32 29 30 31 32 32 31 34 36 37 38 38 37 35 35 34 34 34 35 34 34 35 34 35 34 32 31
41 41 37 39 40 41 41 41 30 31 31 31 29 29 30 29 27 28 28 28 28 30 32 32 32 33 34 37 37 36 34 33 35 35 35 34 32 32 32 33 34 31 30
38 37 37 36 37 36 36 36 34 35 31 30 29 28 27 25 25 27 27 27 29 30 29 29 28 29 33 37 37 36 33 35 35 34 34 33 32 32 31 31 31 31 30
34 29 36 36 35 34 34 33 33 30 29 30 30 27 26 24 24 26 26 27 27 28 28 26 25 27 27 29 34 34 34 35 34 33 32 32 32 31 31 30 30 29 30
35 34 33 32 30 29 30 30 30 29 28 28 29 29 27 23 24 25 26 25 23 24 24 25 24 23 25 26 28 32 33 33 33 32 32 32 31 31 31 31 31 30 29
32 25 27 31 30 29 28 27 27 27 26 25 25 25 24 21 23 23 24 23 22 22 22 22 23 23 21 23 25 28 30 32 32 32 31 31 31 31 30 30 30 29 29
31 29 22 29 28 26 25 25 24 24 23 23 23 23 15 17 21 21 21 22 21 20 20 20 20 21 21 20 22 23 25 27 32 32 32 32 31 30 31 31 31 30 30
26 26 26 24 25 23 21 23 22 21 21 20 21 21 17 20 20 20 20 19 19 20 20 19 19 19 20 19 18 19 21 23 27 29 31 31 31 31 30 30 30 29 29
23 22 23 22 21 18 20 20 19 19 18 18 18 18 18 18 17 18 18 18 19 18 19 18 17 17 19 19 18 18 19 21 24 24 22 30 31 30 30 29 29 28 28
21 20 20 20 19 18 18 16 17 15 15 16 16 16 16 16 16 16 16 16 16 16 16 16 15 16 17 17 17 17 19 21 21 21 21 22 30 30 30 30 29 29 28
20 19 18 18 17 16 15 16 15 14 14 14 14 14 15 15 15 15 15 14 14 14 14 13 14 15 15 15 14 15 17 17 16 17 19 22 27 30 30 30 29 28 28
20 18 18 17 16 15 14 13 12 12 12 12 12 12 13 12 13 13 12 12 12 11 11 14 14 14 13 14 16 16 15 14 16 17 18 19 23 30 30 29 28 28 27

GFSGL_sfc_temp_063.txt.gz
Temp
81 76 71 68 66 64 65 63 64 64 63 58 56 51 49 47 49 49 47 44 43 43 45 49 53 56 56 56 56 56 53 52 47 51 55 56 55 54 55 54 53 51 51
81 79 68 67 64 62 61 61 61 57 54 53 51 48 48 48 46 45 43 44 43 44 47 52 53 56 54 55 55 53 53 53 51 47 52 52 53 54 53 52 51 53 51
80 76 66 62 61 55 52 52 50 49 48 47 48 47 47 45 44 44 44 44 45 48 51 54 54 53 53 54 54 53 54 54 53 50 49 53 53 53 51 51 50 50 51
66 60 56 54 52 50 49 48 47 48 48 48 47 45 45 44 44 45 45 46 49 50 53 54 54 54 53 53 54 53 54 52 51 50 49 49 51 52 50 47 45 49 47
56 54 52 51 51 50 49 48 48 48 48 47 45 45 45 45 45 45 46 46 48 49 52 54 55 54 49 49 53 51 51 51 50 49 47 48 47 46 44 46 43 45 46
53 51 51 51 50 49 49 48 47 47 47 47 46 44 43 45 41 40 42 45 47 50 52 54 56 51 49 44 43 42 45 47 46 46 45 43 44 44 44 42 42 40 38
54 54 54 54 53 53 53 51 50 49 47 44 43 43 44 47 41 41 40 49 51 52 52 53 54 57 51 55 46 41 40 39 36 44 42 42 41 43 43 40 40 40 39
60 60 58 57 56 56 55 53 50 47 45 46 46 47 49 51 43 40 39 49 50 51 52 53 53 53 53 51 51 50 49 48 45 44 43 44 44 45 44 43 40 40 40
59 58 57 56 54 54 51 49 50 47 48 49 51 53 53 54 43 40 41 48 48 48 51 51 51 51 46 43 45 45 46 46 46 41 42 41 38 37 36 39 35 34 33
58 57 57 56 54 52 50 50 50 54 54 56 54 53 45 51 38 39 41 44 42 43 45 46 42 43 38 37 40 42 41 44 45 45 40 40 38 40 34 37 38 32 33
58 57 55 53 52 55 55 55 54 54 53 50 48 49 49 47 46 39 38 40 39 36 38 40 43 39 38 38 36 37 37 41 41 42 41 41 40 41 41 40 39 36 33
57 54 54 55 55 55 53 53 53 52 49 47 44 45 46 46 40 37 36 34 34 35 35 37 38 36 35 35 36 36 35 34 36 36 35 36 37 37 41 42 41 40 40
54 53 52 53 53 53 51 50 51 50 46 43 42 41 42 43 43 36 35 33 33 34 35 35 34 34 35 35 36 34 33 34 33 32 33 34 36 40 41 40 41 41 40
51 51 50 50 49 50 51 50 48 44 42 40 39 38 38 38 39 35 33 33 33 33 33 34 32 31 32 33 34 37 38 35 33 33 35 36 39 39 38 38 36 35 34
50 49 47 46 47 47 46 43 41 37 34 35 37 35 32 31 32 28 28 29 30 29 29 32 34 35 34 36 37 38 39 38 33 33 33 34 34 36 35 36 35 33 31
46 44 42 42 42 45 45 40 31 32 31 30 29 29 31 29 27 27 27 28 28 30 29 31 29 29 29 30 31 33 38 37 34 34 34 36 36 34 34 33 34 31 31
42 40 38 39 40 40 40 39 38 31 32 31 29 28 28 26 26 26 27 27 29 30 29 28 27 26 27 28 28 29 31 37 36 34 34 35 36 34 34 33 32 31 30
37 32 40 40 39 38 38 36 36 33 31 33 31 30 28 26 25 26 27 27 29 29 29 27 26 25 26 26 26 26 28 30 34 34 35 35 34 34 33 31 31 30 30
38 37 36 35 33 32 33 33 33 32 31 31 32 32 31 26 25 27 28 27 25 25 26 26 26 25 24 24 24 24 25 26 29 33 33 33 32 33 32 32 31 31 31
32 28 30 33 32 31 31 30 30 30 29 29 28 28 28 23 22 25 26 25 24 24 24 23 23 23 22 22 23 22 22 24 25 28 32 32 32 33 31 31 31 30 31
35 30 24 31 30 29 28 27 27 27 26 26 26 26 18 20 20 24 24 24 23 22 21 21 21 21 21 21 21 21 19 21 23 26 28 31 32 31 32 32 31 31 31
28 27 27 27 27 26 24 25 25 25 25 24 24 25 22 21 23 22 22 22 21 21 22 21 20 20 20 20 20 19 18 18 20 23 24 23 25 31 31 31 31 30 31
25 25 25 26 24 22 23 24 23 23 22 22 22 22 22 21 20 20 20 20 20 20 19 19 18 18 19 19 20 19 18 17 18 21 19 20 22 23 31 30 30 29 29
24 24 23 23 23 20 22 20 21 20 20 20 20 20 20 19 19 18 18 18 18 17 18 17 17 16 17 18 18 19 19 18 18 18 17 18 19 21 25 30 30 29 30
23 22 21 21 21 20 20 20 19 19 18 18 18 18 18 18 17 17 17 17 16 15 16 15 15 16 16 15 15 16 17 17 17 15 16 18 18 19 21 28 30 29 29
22 22 21 20 20 19 18 17 17 17 16 16 16 16 16 15 15 15 15 14 14 13 13 15 15 14 14 15 16 17 16 15 14 14 16 17 17 18 21 27 30 29 29

GFSGL_sfc_temp_066.txt.gz
Temp
76 74 72 70 66 63 61 61 61 60 59 57 55 51 49 47 47 46 45 43 42 43 43 43 44 46 48 50 48 47 46 45 40 41 43 45 44 43 46 45 45 43 42
76 70 69 65 62 61 59 58 58 55 55 53 51 49 48 47 47 44 43 44 43 42 43 43 45 50 48 48 47 46 43 43 40 39 41 41 42 43 43 42 47 50 43
68 66 65 61 59 54 52 51 50 50 49 48 48 47 46 45 44 44 44 44 44 44 45 46 47 49 47 45 47 43 43 48 42 39 40 40 40 41 40 42 42 41 46
61 57 53 52 50 49 49 49 48 48 48 47 47 45 44 44 44 45 45 44 45 46 47 47 49 47 45 45 45 43 45 41 41 41 41 40 38 40 40 39 36 38 37
54 52 50 50 49 48 47 48 47 47 47 46 45 45 44 44 45 44 45 45 45 45 46 49 48 48 47 46 49 43 41 39 39 38 39 36 35 36 34 34 33 33 35
51 49 49 49 49 47 48 46 46 45 45 45 44 44 43 45 41 41 42 44 45 45 43 46 47 47 46 43 44 43 46 43 41 39 38 36 35 34 34 32 31 30 30
51 51 50 50 49 48 48 47 46 45 45 44 43 43 43 44 40 41 39 43 43 43 42 43 46 51 45 47 45 41 39 40 37 42 39 37 37 37 36 34 32 30 30
54 54 53 52 51 51 51 50 47 45 43 43 43 44 45 48 42 41 39 40 41 42 43 43 42 42 43 40 38 37 39 41 39 38 36 38 39 39 37 37 33 32 31
56 55 55 54 53 52 48 46 46 45 45 45 46 46 46 43 39 38 39 39 40 38 43 41 41 39 40 39 36 34 35 37 43 42 40 40 40 39 39 34 27 29 25
55 55 55 54 52 49 48 47 47 48 48 49 49 46 44 38 38 37 39 33 32 31 33 37 37 37 36 36 33 32 30 32 34 35 36 38 38 37 35 35 32 29 27
56 56 54 53 51 50 50 50 49 47 46 41 41 41 43 40 36 36 36 30 28 29 30 30 32 35 35 35 34 30 30 33 33 33 33 35 37 36 35 33 33 32 29
55 53 52 53 53 52 48 47 48 45 41 38 36 35 35 36 35 35 34 33 32 28 29 30 30 33 33 33 32 33 34 33 32 32 32 32 34 34 34 35 34 33 33
52 51 50 51 51 51 46 45 43 42 37 33 33 32 33 32 32 33 32 32 32 28 29 30 31 32 32 31 33 34 32 31 30 30 30 32 34 36 36 34 34 34 34
49 48 48 46 46 46 46 45 40 34 32 32 32 30 29 30 27 27 27 26 29 28 27 27 27 29 29 30 31 31 31 31 32 31 32 33 35 34 32 32 31 28 28
48 47 44 43 43 42 38 37 31 30 30 29 29 29 24 23 25 26 26 25 24 26 24 25 26 26 26 26 27 28 28 29 27 31 32 32 33 33 32 32 32 30 27
44 42 37 36 36 40 36 34 33 31 31 31 30 27 27 28 27 27 27 28 28 28 24 22 20 21 21 23 24 24 24 25 26 27 31 32 32 30 30 31 31 29 24
37 37 35 35 34 34 33 32 27 29 32 31 30 29 28 27 27 27 27 28 28 28 19 20 17 19 20 22 22 22 21 23 24 25 30 31 31 30 28 29 29 28 28
35 34 36 34 34 33 32 31 30 28 26 26 29 29 29 27 26 27 27 28 22 24 23 20 18 19 20 20 20 20 21 21 21 22 24 29 27 29 28 27 28 28 28
35 34 32 31 28 28 30 29 29 28 27 27 27 28 25 26 26 27 29 21 17 18 20 19 18 19 18 19 18 19 19 18 19 20 21 24 29 25 26 27 28 27 27
29 28 29 30 28 28 28 27 28 27 26 25 24 24 23 20 16 16 19 15 15 17 17 18 18 18 17 17 17 17 17 17 17 18 19 21 22 26 26 25 29 28 26
27 24 23 29 28 26 25 25 25 24 23 23 22 18 16 16 14 17 16 14 17 16 14 17 17 16 16 16 16 15 15 15 16 17 17 18 18 18 22 28 30 28 28
25 26 26 24 25 24 22 23 23 22 22 21 20 21 18 14 18 16 15 14 12 13 15 15 14 15 15 15 13 12 13 13 14 15 15 16 16 17 19 19 28 28 27
23 23 24 24 23 21 20 22 21 20 20 18 18 18 17 16 13 14 13 11 13 11 12 13 12 13 14 13 13 14 13 13 13 14 13 14 14 14 15 18 21 28 27
22 21 21 21 21 19 19 19 18 18 17 16 16 15 15 14 12 11 11 11 11 10 10 12 12 10 11 12 14 14 14 14 14 14 14 12 11 12 15 16 18 25 27
22 21 20 20 19 19 17 18 17 16 16 15 14 14 14 13 14 12 10 11 10 10 11 9 10 12 12 11 11 11 12 14 13 12 12 12 11 12 13 15 17 19 27
21 21 19 19 18 18 16 15 14 14 14 14 13 11 12 12 12 10 11 9 10 9 7 9 9 9 9 10 12 14 13 12 10 11 12 12 12 12 13 15 17 18 26

GFSGL_sfc_temp_069.txt.gz
Temp
72 68 68 62 62 61 60 59 60 58 57 55 54 53 50 48 48 47 45 45 44 43 44 44 44 45 44 45 44 45 43 41 37 37 39 41 40 41 43 41 42 41 43
72 68 65 60 60 59 59 60 58 57 56 55 52 50 48 47 47 45 44 44 43 43 43 44 44 47 45 43 44 43 40 41 39 36 36 37 39 41 40 40 44 47 43
63 60 60 58 59 58 54 54 54 52 51 50 49 48 47 46 44 44 44 44 44 44 44 44 45 45 42 44 45 42 40 45 38 36 40 36 37 38 40 40 42 41 43
58 54 53 52 51 50 50 49 48 49 48 47 47 46 45 45 45 45 45 44 44 45 45 46 45 44 45 41 41 40 41 37 38 35 39 37 34 37 36 35 34 36 35
52 50 49 49 49 49 48 47 47 47 46 46 45 44 45 45 45 44 45 44 44 44 45 46 46 45 45 43 46 40 37 36 35 37 37 33 31 32 33 35 34 32 34
50 49 49 48 47 47 46 46 45 45 45 45 44 43 43 45 40 41 43 43 45 44 41 41 41 43 43 41 40 40 38 37 36 36 37 37 38 32 31 32 34 32 29
49 49 49 48 47 46 46 45 44 44 44 43 42 43 42 43 41 41 40 41 39 38 38 38 41 45 39 38 38 37 36 38 33 32 32 34 35 35 33 32 34 33 32
49 49 49 48 47 47 47 45 44 43 41 40 42 43 43 45 40 40 38 38 37 37 37 37 35 34 36 35 33 31 32 34 35 37 33 35 35 37 36 38 37 35 34
51 50 50 49 48 48 45 43 41 40 42 43 44 42 41 38 38 38 38 34 35 33 35 34 34 32 36 36 31 29 29 30 36 37 38 38 38 38 38 36 33 30 29
52 52 50 50 48 44 42 41 43 43 44 43 43 39 37 35 37 38 35 30 28 28 29 32 33 33 34 34 29 28 26 28 29 29 30 32 34 34 36 36 36 31 30
52 52 51 48 46 46 44 43 42 41 40 35 35 36 35 34 34 35 34 28 26 27 27 27 27 32 32 33 33 29 28 31 31 30 31 33 34 34 35 34 35 33 30
50 49 48 47 48 47 42 41 42 40 35 33 33 31 30 30 33 33 33 32 31 26 27 26 27 31 32 32 31 32 33 31 30 30 29 29 30 31 32 35 35 33 35
47 46 45 46 46 45 42 39 38 36 31 30 30 29 27 27 26 29 30 30 29 25 26 28 29 30 30 29 31 31 28 26 25 25 25 28 32 34 35 34 34 33 32
44 43 42 41 41 40 39 37 33 29 27 29 29 27 26 24 23 23 24 22 27 26 26 25 24 26 25 25 25 26 25 24 23 23 24 26 29 31 31 33 32 31 30
42 41 38 37 35 32 31 31 29 27 29 27 25 27 21 19 24 25 25 25 20 26 21 21 23 22 23 23 23 23 23 23 21 22 22 24 26 31 31 33 32 30 28
38 35 31 30 30 32 30 29 32 31 32 32 31 26 26 28 28 28 28 28 29 29 21 16 12 11 15 19 19 19 20 20 21 21 21 22 23 29 31 31 31 29 28
32 34 33 33 32 31 30 29 25 29 31 31 31 30 30 28 27 27 28 28 29 27 18 16 10 8 9 18 18 17 16 18 20 18 18 20 22 22 29 30 30 29 27
33 32 31 30 29 29 28 28 28 26 24 25 30 29 29 27 27 28 28 28 21 22 20 15 10 8 11 14 16 15 16 16 16 16 16 18 20 20 19 28 29 28 24
30 29 27 26 26 27 27 27 27 27 26 25 26 26 25 26 25 26 25 17 14 16 16 15 9 11 12 13 7 8 8 13 13 13 14 15 17 17 17 19 26 25 24
26 26 27 27 26 26 26 25 25 25 24 24 23 22 21 18 11 8 11 11 8 12 10 13 12 13 10 9 3 4 10 10 12 12 13 13 15 16 15 16 18 26 26
23 24 24 25 24 23 23 23 23 22 22 21 19 16 16 15 13 11 15 10 9 8 4 7 7 4 5 6 12 11 8 7 10 10 12 12 13 13 15 15 16 17 27
23 23 23 22 23 20 20 21 21 20 20 19 17 18 15 10 11 13 11 4 1 4 5 5 3 5 5 10 9 6 7 9 7 10 9 9 11 13 13 12 13 16 20
22 21 21 22 21 20 18 20 18 16 15 14 14 14 14 9 8 11 6 0 3 3 1 2 -3 5 4 3 3 9 10 9 10 9 8 9 10 11 11 10 13 13 15
21 20 20 19 18 17 15 14 14 14 14 12 9 8 8 9 5 6 4 0 -1 -4 -5 -4 3 5 6 8 9 9 10 10 11 11 10 7 9 10 10 10 11 13 15
19 18 17 16 15 12 11 12 10 9 8 7 7 7 8 4 7 3 -1 -4 -1 -7 1 0 -1 3 4 4 5 6 7 11 11 11 10 9 7 8 9 10 11 12 14
18 16 15 14 13 10 8 6 6 6 4 5 4 2 1 4 1 -7 -3 -1 3 2 -2 2 3 2 3 6 8 10 9 10 10 11 10 10 8 9 11 11 11 11 13

GFSGL_sfc_temp_072.txt.gz
Temp
68 67 66 66 66 62 59 58 58 58 58 58 56 54 54 53 51 49 47 46 46 45 45 45 45 45 44 43 44 44 43 39 36 38 37 40 38 40 43 41 40 39 41
62 62 61 60 60 60 60 59 59 58 57 56 55 54 52 50 49 47 45 45 44 44 44 44 44 46 44 43 42 41 38 38 36 37 36 36 37 40 39 39 44 45 42
61 61 59 59 60 59 59 58 57 56 56 53 52 50 49 48 46 45 45 45 45 45 45 44 44 44 43 42 40 40 43 45 42 38 40 36 35 36 36 37 39 40 44
61 57 56 55 56 57 56 54 54 54 51 50 50 49 47 45 45 45 46 45 45 45 45 45 45 45 43 42 42 42 40 36 36 35 37 36 33 36 38 38 37 35 39
53 52 50 50 50 49 49 49 49 48 48 48 46 45 45 45 45 45 45 44 44 44 45 46 45 44 44 42 42 36 35 35 34 32 33 34 32 29 30 34 32 33 32
51 49 49 48 48 48 47 46 46 45 45 45 44 44 43 45 40 41 43 44 44 44 42 42 39 39 38 38 38 38 36 31 29 28 29 30 32 33 31 34 32 33 32
49 49 49 48 47 46 46 45 44 44 44 43 43 43 43 43 41 41 40 43 41 39 35 35 38 39 35 34 34 34 34 35 31 29 28 28 29 31 33 33 33 32 33
49 49 48 48 46 46 46 45 44 43 42 42 42 43 43 44 40 39 37 38 35 34 33 33 31 31 32 32 30 28 28 29 30 31 28 30 31 33 32 34 32 33 34
49 48 48 48 46 46 44 43 42 41 42 43 44 44 41 40 38 36 36 32 31 31 32 32 31 30 33 34 29 27 27 28 34 35 35 35 35 35 35 32 29 27 27
49 49 49 49 47 45 43 42 40 41 43 45 42 40 38 35 36 36 34 29 27 27 29 30 32 30 32 32 27 26 25 27 29 31 33 34 35 33 34 31 31 28 28
51 50 49 47 44 42 42 41 40 39 38 34 33 34 32 33 33 35 34 28 27 27 27 26 26 30 31 32 32 27 28 29 28 27 29 28 29 30 31 32 34 31 29
48 46 45 44 45 43 41 39 39 37 33 31 30 27 28 29 33 33 33 31 29 27 26 26 25 30 31 31 29 31 30 27 24 23 24 26 25 26 28 32 34 33 33
45 44 43 43 42 41 38 36 35 34 32 30 29 26 25 26 25 30 30 29 29 26 27 27 29 29 29 28 29 29 25 23 21 20 21 22 23 25 28 30 33 34 33
42 42 40 37 35 35 35 34 32 28 28 30 28 26 25 24 24 24 25 24 27 27 26 26 24 25 24 24 24 25 24 22 20 20 19 21 23 24 24 29 31 31 30
41 39 35 33 32 31 29 29 28 28 29 29 27 27 23 21 25 26 27 26 23 26 23 22 23 22 21 22 22 21 21 20 18 18 18 17 19 21 22 24 25 31 29
36 34 32 31 30 31 30 29 32 32 32 32 30 27 27 28 28 28 29 28 29 28 23 19 16 12 15 18 17 17 18 17 18 18 16 16 16 17 20 21 23 30 27
33 33 32 32 31 30 29 28 26 29 31 31 31 29 29 28 28 28 29 29 29 26 18 16 10 9 11 17 16 16 14 15 16 15 14 13 14 16 17 17 18 27 27
30 30 29 28 28 28 27 27 27 26 25 26 29 29 29 27 26 26 27 26 22 22 20 17 14 13 14 15 15 13 13 11 10 12 12 11 12 13 14 16 17 16 24
29 27 27 27 26 26 26 26 26 26 25 25 26 26 26 26 25 24 24 18 17 17 17 16 14 14 13 13 6 4 1 1 4 6 6 8 9 10 11 15 15 15 16
27 27 27 26 26 25 25 24 24 23 23 22 22 21 21 20 15 14 15 13 13 15 14 14 14 12 6 7 1 -1 3 2 4 6 4 7 4 8 9 12 13 12 14
25 25 24 24 24 23 22 21 22 21 20 20 18 18 18 17 15 15 15 12 13 13 9 12 8 3 3 2 7 1 3 -1 4 8 8 8 5 6 9 12 12 12 14
23 23 22 22 21 20 19 20 20 19 19 18 17 18 17 13 14 14 13 9 7 10 10 7 4 3 4 5 5 -5 2 3 5 6 7 7 7 8 9 8 10 11 13
21 20 20 20 20 19 18 18 17 16 16 14 14 14 13 10 9 10 9 7 8 5 5 4 -3 2 3 -0 -1 4 6 6 6 8 7 6 7 7 5 6 9 9 10
20 19 19 18 17 17 15 13 13 14 13 11 8 10 8 7 3 3 3 2 1 -1 -5 -5 -2 1 4 -1 -3 2 6 6 8 8 8 8 7 7 6 6 8 9 10
17 16 15 13 12 11 9 9 7 6 6 6 6 5 6 3 3 -3 -3 -5 -5 -7 -3 -4 -3 -1 -1 -0 1 2 3 5 7 9 8 8 7 6 6 6 8 9 10
14 13 12 11 10 10 9 7 6 4 4 2 -0 -2 -3 -4 -3 -12 -8 -5 -6 -6 -5 -4 -2 -2 -1 2 4 6 6 6 6 7 7 8 7 6 6 6 8 10 10

GFSGL_sfc_temp_075.txt.gz
Temp
63 63 61 59 59 59 58 56 56 56 57 57 57 56 54 53 52 52 50 49 48 47 46 46 45 46 45 44 44 44 43 42 38 41 38 38 37 38 41 40 41 38 39
62 62 61 62 62 61 59 58 58 58 58 58 58 59 54 53 52 51 48 48 47 46 45 45 45 46 44 43 43 42 41 40 37 32 35 36 35 38 38 37 43 44 39
62 63 63 62 62 61 58 58 58 59 59 59 57 55 54 52 50 49 48 47 46 46 45 45 44 44 43 42 42 41 41 43 40 37 39 38 34 34 35 36 36 37 41
62 62 61 61 59 59 59 59 59 59 58 54 55 53 50 48 47 47 47 45 45 45 45 45 45 44 43 42 42 41 41 38 36 32 31 32 32 33 32 32 35 34 35
61 60 58 54 54 54 55 57 54 53 53 51 49 47 46 46 46 46 45 45 44 43 44 45 45 43 41 41 42 36 34 30 29 28 28 28 28 28 29 30 31 33 34
53 53 51 51 50 49 49 48 47 47 47 47 45 45 44 45 42 41 43 44 44 43 42 41 39 39 38 37 37 37 34 29 27 25 25 25 25 26 28 27 29 29 29
52 50 50 49 48 47 47 46 45 46 46 44 43 44 43 42 40 41 41 44 42 40 38 38 39 37 34 32 34 33 33 34 29 27 24 24 24 26 27 27 27 28 28
50 50 50 49 47 47 46 45 44 44 43 43 43 43 43 42 39 39 38 39 37 36 35 34 33 30 32 31 29 27 28 28 29 30 26 25 26 28 28 30 29 29 30
49 49 49 48 46 46 44 43 43 42 42 43 43 43 43 41 37 37 37 35 34 32 32 31 30 29 33 33 29 27 26 28 33 34 34 35 35 35 34 31 29 27 26
49 48 48 48 46 44 43 42 43 44 43 43 40 39 38 37 37 36 35 32 29 28 30 30 31 30 31 32 28 26 25 26 26 27 27 29 31 31 32 31 29 26 27
50 49 48 47 45 44 43 42 43 42 39 35 32 33 34 34 34 35 34 29 28 28 27 26 27 30 31 32 31 28 27 26 26 24 24 24 26 28 29 29 28 28 27
49 46 45 44 44 43 42 40 39 37 34 32 30 29 29 31 33 33 33 31 31 28 28 27 27 30 31 31 28 29 28 25 22 21 20 22 22 22 24 25 27 28 29
45 43 42 42 41 39 39 36 34 34 31 30 29 27 25 26 27 31 31 30 29 27 28 28 29 29 29 28 28 27 25 22 19 17 18 19 20 22 23 24 26 27 29
41 39 39 37 35 35 35 35 34 32 31 30 27 25 24 24 25 26 26 26 28 28 26 27 25 26 25 25 25 24 23 21 19 18 17 18 20 20 19 21 21 22 21
38 37 35 33 32 31 31 32 31 30 32 30 29 28 23 23 25 27 27 26 25 26 24 24 23 22 21 22 21 21 21 20 18 17 16 16 16 16 16 19 19 20 18
35 34 32 32 31 32 30 29 32 32 32 32 30 27 28 29 28 28 29 29 29 28 23 19 16 15 16 18 18 17 18 17 17 16 14 15 13 12 13 15 17 17 17
32 32 31 31 31 29 29 28 25 28 31 31 30 29 28 29 29 29 29 29 29 26 18 16 11 10 13 17 16 16 14 15 16 13 11 11 11 11 11 12 13 15 16
30 30 29 29 29 28 27 27 28 27 25 25 28 29 29 27 25 25 24 24 21 21 20 16 15 15 15 15 14 14 13 12 10 10 8 7 4 9 8 9 11 11 14
29 27 27 27 26 26 26 26 26 25 24 25 25 25 25 25 23 22 22 19 18 17 17 16 15 15 14 13 11 8 3 4 2 -4 -0 2 0 7 6 7 8 11 12
27 26 26 25 24 23 23 23 23 23 22 22 22 21 20 20 16 14 16 14 14 16 15 15 15 14 11 10 5 2 1 -4 -2 -2 -1 -4 -2 -0 4 5 7 8 10
24 24 24 23 22 22 21 21 21 20 20 19 18 18 19 17 15 15 15 13 13 13 11 12 11 8 8 7 9 4 0 -5 0 1 5 5 2 2 5 7 7 6 9
22 22 22 20 20 18 20 19 17 18 17 17 16 16 15 13 12 12 12 9 7 11 11 8 5 6 7 5 4 -5 -2 -4 -3 -0 1 4 6 6 6 5 4 4 7
20 20 20 19 19 17 16 16 15 14 13 11 11 12 11 8 8 9 8 5 7 4 3 2 -2 3 4 1 -2 -0 -0 2 3 4 4 4 5 5 5 4 4 4 6
18 17 17 16 14 13 11 10 9 10 10 7 5 7 7 5 2 2 -1 -4 -6 -9 -9 -8 -3 -1 0 -3 -5 -3 2 1 4 5 5 5 5 6 5 5 5 3 5
14 13 11 10 8 6 5 5 3 2 2 -1 -2 -4 1 -4 -4 -12 -14 -13 -10 -11 -6 -5 -5 -4 -4 -3 -3 -1 -1 2 4 5 5 5 4 4 4 4 4 4 5
11 9 7 6 3 3 -2 -5 -7 -9 -8 -7 -7 -7 -7 -6 -7 -16 -11 -7 -8 -6 -6 -5 -4 -4 -4 -2 -0 2 1 1 1 2 3 3 2 2 3 4 4 4 6

GFSGL_sfc_temp_078.txt.gz
Temp
59 59 56 56 56 57 58 59 58 58 57 58 59 58 56 55 55 54 54 52 51 51 50 50 49 48 46 45 45 45 44 43 39 42 43 42 41 42 43 43 43 42 43
58 59 59 60 60 60 61 62 61 59 58 58 57 57 57 56 54 53 52 50 50 48 48 48 46 47 44 45 44 43 42 42 40 37 39 39 38 40 40 39 42 44 42
59 60 60 60 61 61 60 60 58 58 57 57 58 57 57 54 52 52 52 50 49 49 48 47 46 45 43 43 43 42 41 43 40 38 39 40 39 37 37 38 38 39 42
59 59 59 59 60 59 56 55 57 57 57 57 57 55 53 52 51 50 49 47 47 48 48 47 46 45 43 43 43 41 41 39 37 36 35 35 34 35 34 33 34 36 36
59 59 59 60 60 58 55 55 55 55 57 56 52 50 49 48 48 47 47 46 45 45 45 45 44 43 41 41 42 37 36 35 34 32 30 30 30 30 30 31 30 32 33
58 57 59 56 55 54 53 52 52 51 50 50 49 48 47 46 41 42 44 45 45 44 40 38 38 37 37 37 37 36 35 33 31 28 28 28 27 28 29 28 28 28 27
56 55 53 52 51 50 49 48 47 46 46 45 45 45 44 43 41 41 41 44 43 40 37 37 37 36 35 34 34 34 34 34 30 29 27 27 26 28 28 27 27 27 27
52 51 50 50 48 47 47 46 44 44 44 43 43 43 43 41 39 39 38 38 36 35 35 35 34 33 33 33 32 31 30 31 31 32 29 29 29 29 29 32 30 30 31
50 49 49 49 47 46 45 43 43 43 43 43 43 43 41 39 37 37 37 35 34 33 33 34 33 32 33 33 30 29 29 30 33 33 33 33 33 33 34 31 27 26 25
49 48 48 48 47 44 43 42 43 43 42 40 38 39 37 36 36 36 35 33 31 30 32 32 32 31 32 32 29 28 26 27 27 28 28 28 29 30 30 30 28 25 25
49 48 47 46 44 44 43 43 43 39 36 34 32 33 33 34 34 35 35 32 31 30 29 28 28 31 32 32 30 28 27 27 26 25 25 26 27 27 27 28 27 25 23
47 45 44 44 44 43 41 39 38 36 33 31 30 29 30 31 33 33 33 32 32 29 28 28 28 31 31 30 29 29 27 25 24 22 21 22 22 23 24 25 25 26 28
44 42 41 41 41 41 39 36 35 34 32 31 30 28 27 28 30 32 31 30 30 28 28 28 29 29 30 28 28 27 25 23 21 18 18 19 21 22 23 23 24 25 26
41 39 39 37 36 36 36 36 35 33 31 31 30 28 26 26 26 26 26 27 28 27 26 27 26 26 25 25 25 25 23 22 20 19 18 19 21 20 19 20 18 20 19
39 38 35 35 34 32 31 32 31 31 33 31 29 27 24 23 25 27 27 26 25 26 24 24 23 22 22 22 22 22 21 20 18 18 17 16 16 17 15 17 16 17 15
33 31 31 31 31 31 29 28 31 30 31 30 30 28 27 28 29 30 30 30 29 28 23 20 17 16 17 19 18 18 19 18 18 17 16 14 13 13 12 14 14 13 13
31 30 30 29 29 28 28 27 25 28 31 31 31 30 29 29 30 29 28 27 27 25 20 18 15 14 15 18 17 16 15 16 16 15 13 12 11 12 10 11 10 11 11
30 30 30 30 29 28 27 27 27 26 24 25 28 28 28 27 26 26 25 24 22 22 21 17 16 16 16 16 15 14 14 13 12 12 10 9 7 8 8 8 8 7 8
29 27 27 26 26 26 26 25 25 24 24 24 25 24 24 25 24 23 23 20 18 18 18 17 16 16 15 14 13 11 9 8 8 6 4 4 2 5 6 7 7 6 7
25 25 25 24 23 23 23 22 22 21 21 20 19 19 20 19 16 15 15 14 15 16 15 15 15 14 12 11 9 6 5 6 6 5 3 0 1 2 4 4 4 5 7
23 22 22 22 21 21 20 20 20 19 18 17 16 16 16 16 14 13 14 11 11 11 10 11 10 10 9 8 9 7 4 1 3 3 3 4 -0 1 4 5 6 7 7
21 21 20 19 19 18 17 17 16 15 15 14 13 12 10 6 6 6 7 5 6 9 8 6 3 5 6 6 4 -1 -2 -2 -1 1 1 2 3 5 5 5 5 4 5
19 18 18 17 17 14 13 12 11 9 7 4 5 6 5 -1 -1 1 -2 -8 -3 -6 -4 -2 -7 -1 1 -1 -2 -1 -2 0 2 2 1 2 3 3 4 4 5 4 4
16 15 14 11 10 9 6 2 2 4 3 -1 -5 -2 -1 -4 -10 -12 -14 -15 -11 -11 -11 -10 -5 -3 -1 -2 -4 -2 1 0 2 3 3 3 3 4 4 4 4 4 4
12 9 8 6 4 -1 -3 -4 -6 -9 -8 -10 -9 -9 -4 -11 -8 -15 -16 -12 -9 -12 -6 -6 -6 -4 -4 -4 -4 -3 -2 -0 1 3 3 2 1 1 2 3 3 3 4
8 6 4 2 -2 -5 -8 -10 -14 -13 -13 -13 -14 -15 -14 -12 -9 -17 -11 -9 -8 -7 -6 -5 -4 -5 -5 -3 -2 0 -1 -1 -2 -0 0 0 -0 0 1 2 3 3 4

GFSGL_sfc_temp_081.txt.gz
Temp
63 63 63 64 64 64 63 63 64 65 65 64 64 65 65 64 63 60 59 57 56 56 54 52 52 54 50 48 49 47 49 50 48 49 54 48 47 51 54 55 54 54 54
62 62 61 62 63 63 62 64 65 65 65 64 65 64 65 62 60 56 57 55 54 53 52 51 52 49 47 46 46 45 47 49 45 44 43 43 44 48 50 50 52 53 53
62 60 59 60 60 61 62 63 66 65 65 63 63 63 63 63 61 57 56 55 53 53 53 51 50 47 45 45 45 47 44 44 43 41 41 44 45 48 48 48 48 50 50
63 62 61 60 63 62 62 63 65 65 65 64 62 61 62 62 59 57 55 54 53 52 50 50 49 47 45 45 44 43 45 43 42 41 41 40 42 47 46 44 44 45 44
63 63 62 63 63 65 65 63 64 63 64 64 63 62 61 57 54 53 52 50 49 47 46 46 46 46 44 43 45 42 42 38 37 37 36 41 41 44 43 44 39 41 42
63 62 64 64 65 64 63 61 59 59 61 61 59 57 52 51 45 44 47 47 46 45 40 40 39 38 37 37 37 37 38 37 37 36 39 38 40 41 41 39 38 37 36
62 63 63 63 63 63 61 56 56 55 52 50 48 48 47 45 40 41 41 46 44 40 38 37 37 36 37 35 34 34 35 34 32 37 37 38 38 39 38 36 36 36 36
62 62 62 60 57 52 52 51 48 47 46 45 45 44 43 41 39 39 38 40 38 36 36 35 34 34 34 34 34 33 34 34 35 36 37 39 38 38 37 38 37 37 38
57 54 53 53 51 50 48 46 45 44 44 43 44 43 40 37 37 37 37 35 34 33 34 35 34 34 32 35 34 33 33 33 34 33 33 32 32 32 33 36 34 33 31
51 51 52 51 49 47 45 44 44 43 41 40 38 38 37 36 36 36 36 34 31 31 32 32 32 34 32 32 33 33 32 33 33 34 34 34 33 33 30 34 32 29 30
50 49 48 47 46 45 44 43 41 38 35 34 32 33 34 35 35 36 36 34 32 31 31 30 32 32 33 32 32 34 31 32 30 30 30 31 32 31 31 32 32 30 29
48 46 45 44 44 43 41 39 38 36 33 31 30 30 31 32 33 34 34 34 34 31 30 30 32 32 32 30 31 29 27 28 29 28 27 27 27 27 29 30 30 30 32
44 42 41 41 41 41 38 36 35 35 33 32 30 28 28 29 30 31 31 31 30 30 32 31 31 31 30 29 28 27 26 28 26 24 24 25 27 28 28 27 28 29 29
41 40 39 38 36 37 37 37 35 34 32 32 30 28 27 27 28 28 28 29 30 31 29 30 29 29 29 28 29 28 28 27 25 24 24 25 26 25 24 25 23 24 23
40 38 36 35 34 31 31 32 32 32 34 31 29 28 27 28 28 29 29 29 30 29 29 29 29 29 28 28 27 26 27 26 24 24 23 23 22 22 22 23 21 21 19
35 35 34 33 32 32 31 29 31 31 31 31 30 31 29 29 29 30 30 30 29 28 29 27 25 24 24 24 24 24 24 22 23 22 21 21 19 18 19 20 20 19 18
32 31 31 31 31 30 30 29 26 29 31 31 31 30 31 30 30 29 29 29 28 28 26 25 23 23 22 23 23 22 21 21 20 19 18 18 17 17 16 17 17 18 17
30 30 30 30 29 29 29 29 31 30 27 27 29 29 29 28 27 27 26 27 26 26 25 23 22 21 21 21 20 20 19 19 18 17 17 16 14 14 14 15 16 14 15
28 27 27 27 27 28 29 29 29 29 28 26 26 25 25 25 24 24 24 23 22 22 21 21 21 21 20 19 18 17 16 15 14 14 14 13 13 13 13 14 14 12 12
25 25 26 26 26 26 26 26 26 25 24 23 22 22 24 23 21 20 20 19 19 19 18 18 18 18 16 16 15 15 14 14 13 13 12 12 12 12 11 11 12 12 13
24 24 24 25 24 24 24 23 23 23 21 20 18 17 16 20 18 17 16 16 15 15 14 15 14 14 14 14 13 12 11 11 11 11 11 11 11 10 11 12 12 13 13
23 23 23 21 21 21 20 21 20 20 19 18 17 15 14 16 16 14 13 12 12 13 12 11 11 11 11 11 10 9 8 8 8 9 9 9 9 10 11 11 11 11 12
21 20 20 19 18 17 17 17 16 15 14 14 14 14 13 12 11 10 9 9 10 9 9 8 8 7 9 8 9 8 6 7 8 8 7 7 8 9 9 9 10 10 11
18 17 16 14 14 13 12 11 11 10 11 10 10 9 8 8 7 7 6 6 6 7 6 6 5 5 5 5 7 8 8 8 8 7 7 7 7 8 9 9 9 9 9
14 12 11 11 10 9 8 8 7 7 7 7 7 7 7 7 7 5 5 4 3 3 3 3 4 3 3 2 2 2 3 3 4 5 5 5 5 5 5 7 7 8 9
11 10 9 8 7 7 7 5 5 5 4 4 4 4 3 3 4 3 2 2 1 1 1 2 2 1 0 2 3 3 2 1 2 2 3 4 4 5 7 7 7 8 9

GFSGL_sfc_temp_084.txt.gz
Temp
71 71 69 69 69 70 70 70 71 71 71 71 71 71 71 71 72 71 70 70 69 68 66 62 62 60 54 53 55 52 51 51 50 50 54 56 57 60 59 53 58 59 61
71 71 70 70 70 69 69 70 71 70 71 71 71 72 71 72 72 71 69 69 65 63 59 57 55 54 53 53 52 50 49 51 49 46 46 46 48 51 50 53 55 61 60
71 69 69 68 69 68 68 69 70 71 72 72 72 71 70 70 71 70 70 67 64 59 61 56 55 52 51 52 51 50 49 48 46 43 41 44 45 47 47 51 52 57 58
71 69 68 68 68 69 69 69 69 71 71 71 71 70 70 71 71 70 68 64 61 60 58 56 54 51 50 48 46 48 45 44 42 42 41 41 41 46 47 48 51 55 54
70 69 68 68 69 69 69 69 68 69 71 71 71 71 70 68 68 68 66 61 61 57 53 51 49 48 45 46 47 45 44 40 40 38 36 36 38 40 42 51 50 50 51
71 70 71 70 70 70 70 70 69 68 69 69 68 68 68 68 50 45 53 55 51 48 42 41 40 40 38 37 37 37 40 39 36 36 36 34 38 43 48 48 47 45 43
71 71 71 71 71 71 71 71 70 67 66 65 66 66 61 53 41 41 42 47 44 41 38 38 37 36 36 35 35 35 34 34 33 37 36 39 42 46 47 45 44 44 43
71 71 71 71 70 71 71 71 67 63 59 53 48 47 46 42 39 39 38 40 37 37 37 36 35 34 34 35 34 34 34 35 35 36 39 41 43 45 44 44 43 42 43
70 71 71 70 69 67 62 58 54 49 47 45 45 43 40 38 37 37 37 35 33 33 34 34 34 33 33 36 35 33 33 34 34 33 33 33 33 32 33 38 36 37 35
70 70 66 62 59 57 51 47 45 44 41 40 38 38 36 36 36 36 36 34 32 31 32 32 34 33 32 34 35 36 36 39 39 39 39 36 34 37 31 35 38 33 34
61 59 57 55 51 47 45 43 41 38 36 34 33 33 34 35 35 36 36 34 32 31 32 32 32 32 33 33 35 37 36 38 32 36 37 39 39 39 39 39 38 35 32
51 48 46 46 45 43 41 39 38 36 33 32 31 30 31 32 34 34 35 34 35 32 32 33 33 33 32 32 33 28 28 30 35 34 34 34 34 34 35 36 36 35 36
45 43 42 42 42 41 39 37 35 35 33 31 30 28 28 30 31 32 32 32 32 33 34 33 32 32 30 30 28 27 27 33 31 30 30 31 32 33 33 32 34 34 33
41 40 40 38 38 39 38 38 36 34 33 31 30 28 28 29 29 30 30 29 30 30 31 33 32 32 30 31 31 31 34 32 29 28 29 31 32 31 30 31 29 29 28
38 37 35 34 34 32 32 33 32 33 34 31 29 29 28 28 29 31 32 33 32 31 33 34 35 35 34 34 33 31 32 31 28 28 26 26 26 27 26 28 27 27 24
37 35 34 33 33 33 32 30 32 31 32 32 32 32 31 30 31 31 31 30 30 29 33 31 29 29 29 29 28 28 28 27 27 25 24 24 23 23 24 25 25 24 23
35 33 33 33 31 30 30 28 26 28 30 30 31 32 31 30 30 30 30 29 28 31 30 28 26 26 26 27 26 25 24 25 24 23 23 22 22 21 21 21 22 23 22
31 31 30 30 30 30 30 30 30 29 27 27 28 29 28 28 27 27 28 31 30 29 28 26 25 25 25 24 24 23 23 22 21 21 19 19 18 18 17 18 20 19 20
28 28 28 29 30 30 31 31 31 30 28 27 27 27 27 26 26 26 27 27 26 24 25 25 24 23 22 22 21 20 19 19 18 18 18 17 17 17 16 17 18 16 16
27 28 28 29 29 30 31 30 29 28 26 26 25 25 28 27 24 23 23 22 22 22 21 22 22 21 20 20 19 18 18 17 17 16 16 15 16 16 15 15 15 14 16
25 26 26 28 29 28 27 26 25 25 24 22 20 20 20 24 22 21 20 20 20 20 19 19 19 19 19 18 18 17 16 15 15 15 15 15 14 13 14 15 15 15 15
26 25 25 24 25 25 26 26 25 25 24 22 21 19 19 21 21 20 19 17 17 18 18 17 16 17 16 16 15 14 13 13 14 14 14 13 13 14 14 14 14 14 15
25 24 24 24 24 23 23 23 22 21 21 20 20 19 18 17 17 17 16 15 16 15 16 14 13 13 14 14 14 14 12 12 13 13 11 11 12 12 13 12 13 13 14
23 22 21 20 20 20 19 18 16 16 17 17 17 16 15 15 15 14 14 13 12 13 13 12 11 11 11 10 12 13 13 13 12 11 10 10 10 12 12 12 12 12 13
20 18 17 17 17 16 16 16 15 15 14 14 14 14 14 14 14 13 12 11 9 10 9 9 10 10 9 7 6 7 8 7 7 7 8 9 9 9 10 10 11 12 12
17 17 16 15 15 15 14 13 12 12 12 12 13 12 12 11 12 10 10 9 8 6 7 9 9 7 6 8 9 9 6 4 4 5 6 7 8 9 10 11 11 12 12

GFSGL_sfc_temp_087.txt.gz
Temp
67 66 66 66 69 70 69 69 70 69 72 72 73 72 71 72 72 71 70 71 70 70 69 68 68 69 65 65 59 57 55 53 50 53 55 54 52 54 53 55 56 56 59
72 69 67 66 67 68 70 71 71 71 72 72 72 73 72 73 72 72 70 71 70 69 69 68 66 65 63 59 56 54 52 53 52 51 52 49 49 50 48 49 53 57 55
75 73 71 70 70 69 70 72 72 72 73 73 73 72 72 72 73 72 72 71 71 70 69 68 65 61 58 56 53 52 51 51 50 46 42 43 43 44 44 46 47 48 55
76 74 72 72 72 72 72 70 70 70 71 72 73 73 72 74 74 73 73 72 70 70 67 63 62 59 57 56 51 50 47 45 43 43 41 40 40 43 43 42 42 46 49
75 74 72 73 73 73 72 72 70 68 70 72 72 72 73 73 73 72 72 71 70 66 62 58 54 52 47 48 48 46 45 43 42 39 37 37 36 37 38 40 39 42 48
75 74 74 73 73 73 72 72 71 71 72 72 72 72 71 72 55 49 55 66 60 57 45 41 40 41 38 38 38 38 42 40 37 36 36 35 36 38 39 38 39 42 42
74 74 74 73 72 72 72 72 71 70 70 69 70 71 70 68 43 43 43 50 46 42 39 38 37 37 37 36 35 35 34 35 33 37 35 35 35 38 40 41 43 44 43
75 75 75 74 73 73 72 72 72 71 67 65 62 59 53 45 41 41 40 40 38 37 36 36 35 34 34 35 34 33 34 34 34 36 36 38 39 41 43 44 43 42 43
75 75 76 75 74 74 73 72 72 65 53 50 48 44 40 38 37 37 38 36 34 33 34 34 34 33 33 36 34 31 31 32 34 35 35 34 34 34 34 36 34 35 34
75 76 77 75 74 72 71 58 54 50 43 40 38 38 36 36 36 37 37 35 32 31 32 31 32 32 32 35 34 34 33 34 37 39 39 36 34 37 33 34 35 33 34
76 75 74 73 69 56 50 47 43 39 37 36 34 34 34 35 35 36 36 34 32 31 30 30 31 32 34 34 34 33 30 38 35 37 38 39 41 41 41 40 40 36 32
54 51 48 47 46 45 42 40 38 38 34 32 31 30 31 33 34 34 34 34 34 31 31 32 32 33 33 33 31 29 30 32 35 34 34 35 36 36 37 37 37 36 37
44 43 42 41 41 41 39 38 36 34 32 31 30 28 28 30 31 33 33 33 33 32 33 33 32 32 30 30 29 29 29 34 32 31 31 32 34 36 36 34 35 35 34
38 38 37 36 36 38 38 36 35 33 32 31 29 27 28 29 29 30 30 31 31 31 31 32 31 31 29 31 31 32 34 32 30 29 29 30 32 31 30 31 28 28 28
36 35 33 33 33 31 31 32 31 31 32 30 29 29 28 27 29 31 32 32 33 33 33 34 34 34 33 33 33 32 32 31 29 28 26 26 27 27 27 28 27 26 24
34 33 33 32 31 31 30 29 31 31 31 31 30 29 29 29 29 29 30 31 31 31 33 31 29 29 28 29 28 28 28 27 26 26 25 25 24 23 23 24 24 23 22
32 32 32 32 31 29 29 28 25 28 30 30 30 30 29 29 30 30 30 31 32 33 30 28 27 26 27 28 27 26 24 25 25 24 23 22 21 21 20 20 20 20 20
31 31 30 30 29 29 29 28 28 27 25 24 27 27 27 28 29 30 30 31 29 29 28 26 25 25 25 25 25 24 24 23 22 22 20 20 19 18 17 17 18 17 17
30 30 30 31 31 31 31 29 27 26 25 24 24 25 27 27 27 28 28 26 25 24 25 25 25 24 24 23 22 21 21 20 19 19 19 18 17 17 16 16 17 16 16
29 29 30 30 29 29 30 28 27 26 25 23 22 24 27 26 23 23 23 23 23 23 22 23 23 23 21 21 20 20 19 19 18 18 17 16 16 16 15 15 15 15 15
29 28 28 28 28 29 28 27 26 24 22 21 20 22 24 24 23 22 21 21 20 20 20 20 20 20 20 20 20 18 17 16 16 16 16 16 15 14 15 15 15 16 16
28 27 27 26 26 26 26 27 26 25 24 23 21 21 22 22 22 21 20 18 19 20 20 19 18 18 18 17 16 15 15 14 15 15 14 14 14 14 14 14 14 14 14
28 27 27 26 26 25 25 25 24 24 23 22 22 20 20 19 18 19 18 17 18 17 18 16 15 15 16 16 15 15 13 13 14 14 12 12 12 12 13 12 13 13 13
26 24 24 23 23 22 21 19 19 20 20 20 19 18 18 18 17 17 16 15 15 15 15 14 14 13 13 12 13 14 14 13 13 11 11 10 10 11 11 11 12 12 12
23 22 22 21 20 19 19 19 18 18 18 17 17 17 17 17 16 16 15 14 13 12 12 12 13 13 12 10 9 10 11 11 9 8 8 9 9 9 10 11 11 12 13
21 21 20 20 19 19 18 17 16 16 16 16 16 16 16 15 15 14 14 13 10 9 11 12 12 11 10 11 12 12 9 7 6 6 6 7 7 8 9 10 11 12 12